GFSGL_250_rhum_000.txt.gz
RH
98 96 88 76 72 64 52 51 58 64 63 35 26 22 15 13 13 12 11 9 6 5 5 5 5 5 5 5 5 5 5 5 6 6 6 5 5 5 6 5 7 11 12
92 76 64 54 55 53 55 55 52 50 34 22 20 17 15 13 12 9 7 6 5 5 5 5 5 4 4 3 3 4 4 4 6 6 6 6 6 5 5 4 5 8 11
75 78 61 58 64 59 53 45 33 23 18 17 16 13 12 9 7 6 5 5 5 4 4 3 3 3 3 3 3 3 3 4 5 6 6 6 6 6 6 6 5 5 7
68 68 69 69 64 49 32 24 18 15 14 13 11 8 6 5 5 5 4 3 3 3 3 3 4 3 3 3 3 3 3 3 4 6 7 6 6 6 6 6 6 5 5
70 72 57 47 36 30 21 16 14 12 11 9 6 5 5 4 4 4 3 3 3 3 4 4 4 4 4 4 3 3 3 3 3 3 4 6 6 6 6 6 6 6 6
74 66 46 29 17 15 13 12 12 9 6 6 5 4 3 4 4 4 3 3 4 4 4 4 4 3 3 3 3 3 3 3 3 3 3 4 4 6 7 7 8 7 7
62 41 26 17 13 10 9 7 5 5 4 4 3 4 4 4 4 4 4 4 4 4 4 4 4 5 5 4 4 3 4 4 4 4 4 4 4 5 7 8 8 8 8
37 24 13 10 10 9 6 5 4 4 3 4 4 4 4 4 4 5 5 4 4 4 4 5 5 4 5 5 5 5 5 5 5 5 5 4 4 4 7 8 8 9 9
29 13 10 9 7 5 5 4 4 4 4 4 4 4 5 5 4 4 4 4 3 4 4 4 4 4 4 5 5 5 5 5 5 5 5 5 5 5 6 8 8 9 9
12 9 9 7 5 5 5 4 4 4 4 5 5 5 5 4 4 4 4 4 4 4 3 3 3 4 4 5 4 4 5 6 5 5 5 5 5 5 5 5 7 8 9
9 8 6 5 5 4 4 4 4 5 5 5 5 5 4 5 4 4 4 3 3 3 3 3 3 3 4 4 5 5 5 5 6 6 5 5 5 5 6 6 6 6 6
8 7 6 5 4 4 4 4 5 5 5 5 5 5 5 5 4 4 3 3 4 3 3 4 4 4 4 4 5 5 6 6 6 6 6 6 7 7 7 7 7 6 6
7 6 5 4 4 4 5 5 6 6 6 6 6 6 5 5 4 4 4 4 3 3 2 3 4 4 4 5 6 6 6 7 7 7 7 8 8 9 8 8 7 7 7
6 5 5 4 4 5 6 6 6 6 6 6 6 6 5 5 4 4 4 3 3 2 2 3 3 4 5 5 6 7 8 8 8 8 8 9 9 9 9 8 7 6 5
5 5 4 4 5 5 6 6 6 6 6 6 6 6 6 5 5 4 3 3 3 3 2 3 3 4 4 5 7 8 9 9 9 10 10 10 10 9 6 5 6 6 6
5 4 4 5 5 6 6 6 6 6 6 6 6 6 6 5 4 4 3 3 3 3 3 3 3 3 4 5 6 8 9 10 11 11 11 10 7 7 8 9 9 7 6
5 4 5 5 6 6 6 6 6 6 6 6 6 6 5 4 4 4 4 4 4 3 4 4 4 4 4 5 6 7 8 9 10 9 8 8 9 10 10 9 8 6 6
5 5 5 6 7 6 6 6 6 6 7 8 6 5 5 5 6 5 4 4 4 4 4 5 6 5 5 5 6 7 8 8 8 8 8 10 11 11 10 8 6 6 6
5 5 6 6 6 6 6 6 6 7 6 5 5 6 6 7 6 6 5 4 4 5 5 6 7 7 7 6 6 7 7 8 8 8 8 11 12 12 10 8 7 8 8
6 6 6 6 6 6 6 7 6 5 5 5 5 6 6 6 7 6 6 5 4 5 5 6 7 8 9 9 9 8 8 8 8 8 10 12 12 12 10 8 8 8 9
6 6 6 7 6 6 7 6 5 5 5 6 5 6 6 6 7 7 6 6 6 5 5 6 6 7 8 9 10 10 10 9 9 10 11 12 12 12 11 9 9 10 10
6 6 6 6 6 6 6 5 5 5 6 6 6 6 6 6 7 7 7 6 6 6 5 5 6 6 6 7 8 9 9 10 10 11 11 11 11 11 10 9 8 10 10
7 6 6 6 6 5 5 5 6 6 7 6 6 6 6 6 6 6 6 6 6 6 5 5 5 6 6 6 6 7 8 8 8 9 9 10 10 9 9 8 8 8 9
6 6 6 6 5 6 5 5 6 7 7 7 6 6 5 5 5 5 5 5 5 5 5 5 5 6 6 6 6 5 6 6 7 7 8 8 8 8 8 8 8 7 7
7 6 6 5 6 6 6 6 6 7 7 6 5 5 4 5 5 5 4 4 4 4 4 4 4 5 5 5 6 6 5 5 5 6 6 7 7 7 7 7 6 6 6
6 6 5 5 6 7 6 6 7 7 6 6 4 4 4 4 4 4 4 4 4 4 4 4 4 4 4 5 5 5 5 5 5 5 5 6 6 6 6 5 5 5 5

GFSGL_250_rhum_003.txt.gz
RH
64 76 85 82 74 78 81 69 68 59 56 36 25 16 11 10 9 9 8 6 5 4 4 4 4 4 4 4 4 3 3 3 5 5 5 5 5 4 4 4 6 7 7
89 96 100 100 87 75 70 55 58 50 31 26 13 9 9 8 8 6 5 5 4 4 3 3 3 3 3 2 2 2 2 2 2 3 3 4 5 5 5 4 4 4 6
100 100 92 75 64 53 50 44 35 22 16 13 10 10 9 7 6 5 4 3 3 3 3 3 3 3 3 3 2 2 3 3 3 2 2 2 3 4 5 5 5 5 4
88 71 62 58 52 53 44 25 17 11 9 9 8 6 5 5 4 4 3 3 3 3 3 3 3 3 3 3 3 4 4 4 4 3 3 3 3 3 4 5 6 6 6
66 61 60 54 55 42 19 11 10 9 8 6 4 4 4 3 4 3 3 4 4 4 4 4 4 3 3 4 4 3 3 3 4 4 3 3 3 3 3 5 6 6 6
67 70 55 55 50 20 12 9 8 7 5 5 3 3 4 4 4 4 4 4 4 4 4 4 4 4 3 3 4 3 4 4 3 3 4 3 3 3 3 4 7 7 7
76 73 65 52 19 12 10 9 6 5 4 4 3 4 4 4 4 4 4 4 4 4 4 4 4 3 3 3 4 4 4 5 5 4 3 3 3 3 3 3 4 7 8
67 64 51 19 12 10 9 6 5 4 4 4 4 4 4 5 4 4 4 4 4 4 4 4 4 3 3 4 4 4 4 5 5 5 5 5 4 4 4 3 4 4 7
60 51 28 11 9 8 6 5 4 4 4 4 4 4 5 5 4 4 5 4 4 4 3 3 3 3 3 3 3 4 4 5 5 5 6 6 5 5 4 4 4 4 4
50 36 11 9 8 6 5 4 4 4 4 4 5 5 6 5 5 5 4 4 4 3 3 3 3 3 4 4 3 4 4 5 5 5 6 6 6 5 5 4 4 4 4
41 11 9 8 6 4 4 4 4 4 4 5 5 5 6 6 5 5 4 4 4 4 4 4 3 3 4 4 4 4 4 5 5 6 6 6 6 5 5 5 5 5 5
12 10 8 6 5 4 4 4 4 5 5 6 6 5 5 5 5 5 4 4 4 3 3 3 2 2 3 4 4 5 5 5 6 6 6 6 6 6 6 6 6 6 6
10 8 7 5 4 4 4 4 4 5 6 6 6 6 6 5 5 5 4 4 3 3 3 3 2 3 3 4 5 5 5 6 6 6 6 7 7 6 6 6 7 7 7
8 7 6 5 4 4 5 5 5 6 6 6 6 6 6 6 6 5 4 3 3 3 3 3 3 3 3 4 4 5 6 6 6 7 7 8 7 8 8 8 8 8 8
8 6 5 4 5 5 5 6 6 6 6 6 6 7 7 6 5 4 4 4 4 4 4 3 3 3 3 3 4 5 6 7 7 8 8 8 9 9 9 9 9 9 9
6 6 5 5 5 5 6 6 6 6 6 6 6 6 6 5 5 5 5 5 5 4 4 4 4 4 4 4 4 5 6 7 8 9 10 10 10 11 10 10 8 6 5
5 5 5 5 5 6 6 7 6 6 6 6 5 4 4 5 5 5 6 6 6 5 4 4 5 6 5 5 4 5 6 8 9 10 11 11 11 10 8 7 7 8 8
5 5 5 5 6 6 7 7 6 7 6 5 5 4 5 5 5 6 6 6 6 6 5 5 5 6 7 7 6 6 7 8 9 10 11 11 10 8 8 8 10 10 10
5 5 5 6 7 7 7 6 7 6 5 5 6 5 6 6 6 6 6 7 7 7 6 5 5 6 7 8 8 8 8 8 9 10 10 10 9 9 9 11 11 11 10
5 5 6 6 7 7 6 7 6 6 6 6 5 7 7 6 6 6 6 7 7 7 7 6 5 6 6 7 9 10 10 9 9 9 9 9 9 9 10 11 11 11 10
5 5 6 7 7 7 6 6 6 7 7 6 6 6 7 6 6 5 6 6 6 6 6 6 6 5 6 6 7 8 10 10 11 10 10 10 9 10 11 12 11 11 10
5 6 7 7 6 6 6 6 7 7 8 8 7 6 6 5 5 5 5 5 5 5 5 6 6 6 5 6 6 6 7 8 10 10 10 10 9 10 11 11 11 10 10
5 7 7 6 6 6 6 7 7 8 8 8 7 6 6 5 4 4 4 5 5 5 5 5 5 5 5 5 6 6 6 6 6 8 9 9 9 10 10 9 9 8 8
6 7 6 6 6 6 7 8 8 7 7 7 6 6 6 4 4 4 4 4 4 4 4 4 4 4 4 4 5 5 6 6 6 6 6 7 8 9 9 8 8 8 8
6 6 6 6 6 7 8 8 7 7 7 6 6 6 5 4 4 4 4 4 4 4 4 4 4 4 4 4 4 5 5 5 6 5 5 5 6 6 7 7 8 8 7
6 6 5 5 6 7 8 7 7 7 7 7 6 6 4 4 4 4 4 4 4 4 4 4 4 4 4 4 4 4 4 4 5 5 5 5 5 5 5 6 6 6 6

GFSGL_250_rhum_006.txt.gz
RH
40 46 62 70 67 70 74 68 56 54 48 35 28 22 10 8 7 6 5 4 4 4 3 3 3 3 2 2 2 2 2 2 3 4 4 4 4 4 4 4 4 5 9
70 72 63 64 67 67 61 60 55 41 35 26 19 8 7 7 6 5 4 4 3 3 3 3 3 3 3 3 3 3 3 3 3 3 3 2 3 4 4 4 4 4 4
64 68 71 66 67 66 60 50 42 37 31 18 8 8 7 6 5 4 4 3 3 3 3 3 3 3 3 3 3 4 3 3 3 3 3 2 2 2 3 4 4 5 4
71 74 71 73 68 58 47 36 32 25 13 8 8 6 5 5 4 4 3 3 3 4 4 4 4 3 4 3 3 3 3 3 3 3 3 3 3 2 2 2 3 4 5
73 71 72 65 55 43 33 29 26 13 9 8 6 5 4 4 4 4 3 3 4 4 4 4 3 3 3 4 4 3 3 3 4 3 3 4 3 3 4 3 3 3 3
70 64 60 58 46 37 29 26 13 8 7 6 5 4 4 4 4 3 4 4 4 4 4 4 3 3 3 3 3 3 3 3 3 4 4 3 3 3 4 4 4 3 3
69 70 70 54 36 27 20 11 7 7 5 4 4 4 4 4 4 4 4 4 4 4 4 4 3 3 3 3 3 3 3 3 4 4 4 3 3 3 4 4 4 4 4
77 75 62 37 28 20 11 8 7 5 5 4 4 4 4 4 4 4 5 4 4 4 5 5 4 3 3 3 3 3 3 3 3 4 3 4 4 4 4 4 4 4 4
70 62 44 27 22 12 8 7 5 4 4 4 4 4 4 4 4 4 4 4 4 4 4 4 3 3 3 3 3 3 3 3 3 3 4 5 5 5 4 4 4 4 4
58 42 28 22 12 8 7 5 4 4 4 4 4 5 5 5 5 4 4 4 4 4 4 4 3 3 3 3 3 3 3 3 3 4 4 4 5 5 5 5 5 4 4
36 29 22 13 8 7 6 5 5 5 4 5 5 5 5 5 5 5 4 5 5 4 4 3 3 2 2 2 2 3 4 4 4 4 5 5 5 5 5 5 5 5 5
29 22 16 8 8 6 5 5 5 5 5 5 5 6 5 5 5 5 5 5 4 3 3 3 3 3 2 2 3 3 4 4 4 5 5 5 6 6 6 6 5 5 6
23 17 9 8 7 6 5 5 5 5 5 5 6 5 5 5 5 4 4 4 4 4 4 4 3 3 3 3 3 4 4 5 5 5 6 6 6 6 6 6 6 6 6
15 9 9 8 6 5 5 5 5 6 6 6 5 6 6 5 4 4 4 4 5 5 5 5 4 4 3 3 3 3 4 5 6 7 7 7 7 7 7 7 8 7 7
10 8 8 6 6 5 5 5 6 6 6 5 5 6 5 4 5 4 4 4 5 6 6 5 4 4 4 4 3 3 4 5 7 8 8 8 8 8 8 8 8 8 8
9 8 7 6 6 5 5 6 7 6 6 6 5 5 5 5 5 5 5 5 5 6 6 6 5 4 4 5 4 4 4 5 7 8 9 10 10 10 9 9 9 9 10
8 7 6 6 5 5 6 6 6 6 6 5 5 5 5 5 5 6 5 5 5 6 7 7 6 5 5 5 6 5 4 5 8 9 9 10 11 11 11 11 11 11 11
6 6 5 5 5 5 6 7 6 6 5 5 6 5 5 6 5 6 6 5 5 6 7 7 7 6 6 6 6 7 6 6 6 8 10 10 11 12 12 12 11 10 8
6 5 5 5 5 6 6 7 7 6 6 6 6 7 7 7 6 5 5 5 5 5 6 7 7 7 7 6 6 7 7 7 7 8 10 11 12 12 11 10 9 8 9
6 5 5 5 5 6 7 7 6 6 6 8 8 8 8 7 6 5 4 4 4 5 5 6 6 7 7 7 6 6 7 8 9 9 9 9 10 10 10 9 8 8 9
5 5 4 5 6 7 6 6 6 6 8 8 7 8 8 6 5 5 4 4 4 4 5 5 5 6 6 7 7 6 6 7 8 9 10 10 10 9 9 9 9 9 9
4 5 5 5 6 6 6 6 6 7 7 8 7 7 7 6 5 5 4 4 4 4 5 5 5 5 5 6 6 6 6 6 7 7 8 9 10 10 10 10 10 10 10
5 5 5 6 6 6 6 5 6 7 7 7 7 6 6 6 6 5 4 4 4 4 4 5 5 5 5 5 5 6 6 6 6 6 6 6 7 8 9 10 10 10 10
5 5 5 6 6 6 5 5 7 7 7 7 7 7 7 6 6 5 4 4 4 4 4 4 4 4 4 4 4 5 5 5 5 6 6 6 6 5 6 7 8 9 9
5 5 5 6 5 5 5 6 7 7 7 7 7 7 6 5 5 5 4 4 4 4 4 4 4 4 5 4 4 4 4 4 4 5 6 6 6 6 5 5 5 6 7
5 5 5 5 5 5 5 7 7 7 7 7 6 5 5 5 4 4 4 4 4 4 4 4 4 4 4 4 4 4 4 4 4 4 4 5 5 5 5 5 5 5 5

GFSGL_250_rhum_009.txt.gz
RH
56 56 54 62 59 50 47 48 56 52 45 42 38 29 19 15 9 7 7 5 5 4 3 3 3 3 3 3 3 3 3 3 3 3 2 2 2 3 3 4 4 6 8
54 60 60 52 47 55 57 57 56 53 41 34 26 20 13 8 7 6 5 4 3 3 3 3 3 3 3 3 3 3 3 3 3 4 3 3 2 2 2 3 4 4 4
60 61 57 57 64 63 66 64 51 36 28 23 19 12 8 7 6 5 4 3 3 3 3 3 3 4 4 3 3 3 3 3 3 4 3 3 3 2 2 3 3 3 4
66 62 60 64 67 69 68 49 36 30 21 17 10 8 7 6 4 4 4 4 3 3 4 4 4 4 3 4 4 3 3 3 3 3 3 3 4 3 2 3 3 3 3
65 60 65 75 81 76 54 44 34 20 14 10 9 7 6 4 4 4 4 4 4 4 4 4 4 3 4 4 4 4 3 3 3 3 4 3 3 3 3 3 4 4 4
62 75 83 83 85 62 54 36 21 14 9 9 8 5 4 4 4 4 4 4 4 4 4 4 4 3 4 4 3 3 4 3 3 3 3 3 3 3 3 4 4 4 4
76 84 90 88 72 51 40 23 14 9 8 7 6 5 4 4 4 4 4 4 4 4 4 4 4 3 3 3 2 3 3 3 3 2 3 3 3 3 3 3 4 4 5
93 100 91 70 55 42 22 14 9 8 7 6 5 4 4 5 5 5 5 5 5 4 4 4 4 4 4 3 3 3 3 3 3 3 3 3 3 4 4 4 4 4 4
100 89 68 57 40 25 16 9 8 7 6 5 5 4 5 6 6 6 5 4 4 4 4 4 4 4 3 3 3 2 2 3 3 3 3 3 3 4 4 4 4 4 3
92 64 55 45 29 17 10 8 8 6 5 5 5 5 6 6 6 5 5 4 4 4 3 3 3 3 3 3 2 2 2 2 2 3 3 4 4 4 4 4 5 5 4
75 60 45 30 19 11 8 8 7 6 5 5 5 6 6 6 5 5 5 4 4 3 3 3 3 3 3 3 3 2 2 2 3 4 4 4 4 4 5 6 6 6 5
64 47 31 21 13 9 8 7 6 5 5 5 6 7 6 6 5 5 4 4 4 4 3 4 4 4 4 3 3 2 3 3 4 4 4 5 5 5 6 6 6 6 7
61 34 21 14 10 8 7 6 6 5 4 5 6 6 6 5 4 4 4 4 4 4 4 4 4 5 4 4 3 3 3 3 4 5 5 6 6 6 6 6 6 6 6
40 22 14 11 9 7 6 6 5 4 5 6 7 6 6 5 5 4 4 4 5 5 4 4 5 5 4 4 4 3 3 3 4 5 6 6 6 7 7 7 6 6 6
22 15 12 10 8 6 6 5 5 4 5 6 6 6 5 5 5 5 5 5 5 5 5 5 5 6 5 4 4 4 4 3 4 5 6 7 7 8 8 7 7 7 7
16 13 10 8 6 5 5 4 4 5 6 6 6 5 5 6 6 7 7 6 6 6 5 5 6 6 6 5 5 5 5 4 4 5 7 8 9 9 9 9 9 9 9
13 10 8 6 6 5 4 4 5 6 7 6 6 5 6 6 7 7 7 6 5 5 5 5 6 7 7 6 5 5 6 5 5 5 6 7 9 10 11 11 12 12 12
10 8 6 6 5 4 4 5 5 6 6 6 5 7 7 7 6 6 6 6 5 4 4 5 5 6 6 7 6 5 6 7 6 6 7 8 10 11 12 13 12 12 13
8 6 6 5 4 4 5 5 6 6 6 5 6 7 7 7 7 6 6 6 5 4 4 4 5 5 5 6 6 7 6 7 8 8 7 7 9 10 11 12 13 13 13
6 5 5 4 5 5 6 6 6 6 6 5 6 7 7 8 7 7 6 5 4 4 4 4 4 5 5 5 6 6 7 6 7 8 8 8 8 8 9 10 11 11 11
5 5 4 5 6 6 6 6 6 6 5 6 7 7 7 8 7 7 6 6 4 4 4 4 4 5 5 5 5 6 6 7 6 7 8 8 9 8 8 8 8 8 8
5 4 4 5 6 6 6 6 5 5 5 6 8 8 8 7 7 7 6 6 5 4 4 4 4 4 5 5 5 5 5 6 6 6 6 7 8 8 8 9 9 9 8
4 4 5 5 6 6 5 5 5 5 5 7 8 7 8 8 6 5 5 5 5 4 4 4 4 4 5 5 5 4 5 5 5 6 6 6 6 7 7 8 8 9 9
4 5 5 5 5 5 5 5 5 4 5 8 8 7 8 6 5 5 5 5 4 4 4 4 4 4 4 5 5 5 5 5 5 5 5 5 5 6 7 7 6 6 7
5 6 5 5 5 5 5 4 4 5 6 8 8 8 7 5 5 5 4 4 4 4 4 4 4 4 4 4 4 4 4 4 4 5 5 5 5 5 5 6 6 6 5
5 5 5 5 4 4 4 4 5 6 7 8 8 8 6 5 5 5 4 4 4 4 4 4 4 4 4 4 4 4 4 4 4 4 4 4 4 4 5 5 5 5 5

GFSGL_250_rhum_012.txt.gz
RH
60 57 57 61 60 52 46 50 62 60 57 51 46 36 25 16 13 9 7 6 6 5 4 3 3 3 3 3 3 3 2 2 3 3 3 2 2 3 2 2 3 3 3
54 57 60 59 54 49 53 62 66 70 64 55 38 24 17 12 9 7 7 6 4 4 4 4 3 3 3 3 3 3 3 3 3 4 3 3 3 3 3 3 2 2 3
58 58 56 52 51 60 66 72 77 72 68 50 31 17 12 10 8 7 5 4 4 4 3 4 3 3 3 3 3 3 3 3 3 3 4 3 3 2 3 3 3 3 3
56 51 50 55 62 67 73 80 78 75 52 34 18 12 10 8 6 5 4 4 4 4 4 4 4 4 4 4 4 3 3 3 3 3 3 4 3 2 3 3 3 3 3
53 57 63 65 70 79 89 86 76 61 41 22 14 11 9 7 6 5 4 4 4 4 5 4 4 4 4 4 3 3 3 3 3 3 3 3 4 3 3 3 3 3 3
69 77 68 78 87 97 96 86 57 38 20 14 11 9 7 6 5 5 4 4 4 5 5 4 4 4 4 3 3 3 3 3 3 3 3 3 3 3 3 3 4 3 4
78 76 79 91 99 99 89 67 31 19 13 11 9 7 6 6 5 4 4 5 5 4 4 4 4 4 4 3 3 3 3 3 3 3 3 3 3 3 3 3 4 4 4
81 80 92 98 100 92 70 29 18 14 11 10 8 6 6 5 4 4 5 5 4 4 4 4 4 3 3 3 3 2 2 3 3 2 3 3 3 2 3 3 4 4 4
84 98 92 100 98 76 32 18 15 11 10 8 7 6 5 4 4 5 6 5 4 4 4 3 3 3 3 3 3 3 3 2 2 2 2 3 3 3 3 3 4 4 4
98 95 100 93 73 40 20 16 12 11 9 7 6 5 4 4 5 6 6 5 4 4 3 3 3 3 4 4 4 4 3 3 2 2 2 2 3 3 3 3 4 4 4
99 98 85 71 44 23 16 13 11 10 8 6 5 4 4 5 6 6 5 4 4 4 4 3 4 4 4 4 4 4 3 3 2 2 3 3 3 4 4 4 4 5 5
97 83 64 45 26 17 14 12 10 8 6 6 5 5 5 6 6 5 5 5 5 5 5 4 4 4 4 4 5 4 3 3 2 3 3 4 4 4 4 5 6 6 6
78 58 41 27 18 14 12 10 9 7 6 5 5 5 6 6 6 5 5 6 6 6 6 5 4 4 5 5 5 4 4 3 3 3 4 4 5 5 5 6 6 6 6
48 28 24 17 14 13 10 9 7 6 5 5 5 6 7 6 5 5 6 6 6 6 6 5 4 4 5 6 6 4 4 4 3 3 3 4 5 6 6 6 6 7 8
30 20 16 14 13 11 9 7 6 5 5 6 6 6 7 6 5 6 6 6 6 6 5 5 4 4 5 6 6 5 4 4 4 3 4 5 6 6 6 7 7 7 8
21 19 14 13 12 10 8 6 6 5 6 6 6 6 6 5 5 6 6 7 7 7 5 5 4 4 5 5 6 6 5 5 5 4 4 5 6 7 7 8 8 8 8
18 16 13 11 10 9 6 6 5 5 6 6 6 6 6 5 6 7 7 8 7 7 6 5 4 4 4 5 5 6 6 5 6 6 4 5 6 7 8 8 8 8 8
16 14 11 9 9 6 5 5 5 6 6 6 6 6 5 5 7 7 7 8 8 7 7 5 4 4 4 4 5 5 6 6 5 6 7 5 6 8 8 9 9 9 9
14 11 9 9 6 5 5 4 5 5 6 6 6 6 5 6 8 7 7 8 8 7 6 5 4 4 4 4 5 5 5 6 7 6 7 7 6 7 8 9 10 11 11
10 8 8 7 5 5 4 5 5 5 5 5 6 5 5 7 8 7 7 7 6 6 6 5 5 4 4 4 4 5 5 5 6 7 6 7 8 7 7 9 10 12 12
8 8 8 5 5 5 5 5 5 5 5 5 5 5 5 7 8 8 8 6 6 5 5 5 5 4 4 4 4 4 5 5 6 6 7 6 7 9 9 8 8 10 10
8 7 6 5 5 4 5 5 5 5 5 5 4 5 6 8 8 8 8 6 5 5 6 5 5 5 4 4 4 4 4 5 5 5 6 6 7 7 7 9 9 9 9
7 6 5 5 4 5 5 5 5 5 5 4 4 5 7 8 9 9 8 6 6 5 5 5 5 4 4 4 5 4 4 4 5 5 5 6 6 6 6 6 7 8 9
6 4 5 4 4 5 5 5 4 5 5 4 5 6 8 9 9 8 7 6 6 5 5 5 5 4 4 4 5 5 4 4 4 5 5 5 5 6 6 6 6 6 6
4 4 5 4 5 5 5 5 4 4 4 4 5 7 8 8 8 7 6 6 5 5 5 5 4 4 4 4 4 4 4 4 4 4 4 5 5 5 5 5 5 5 5
4 4 4 5 5 4 4 5 4 4 4 4 6 7 7 7 7 6 5 5 5 5 5 5 4 4 4 4 4 4 4 4 4 4 3 4 4 4 4 4 4 4 5

GFSGL_250_rhum_015.txt.gz
RH
53 55 55 47 48 54 58 58 59 56 66 74 73 65 54 44 23 16 12 9 7 6 5 4 4 3 3 3 3 3 3 3 3 4 4 2 2 2 2 2 2 3 3
50 47 48 50 54 53 55 56 64 77 76 70 66 59 38 25 16 12 9 7 6 5 4 4 3 3 3 4 4 4 3 3 3 4 3 3 2 2 2 3 3 3 3
47 45 46 46 48 60 59 77 77 70 70 76 61 46 34 18 13 11 8 6 4 4 4 3 3 4 4 4 3 3 3 3 3 3 4 3 3 2 2 2 3 3 3
46 44 44 50 62 69 79 79 73 82 82 66 47 33 20 13 11 8 6 5 5 4 4 4 4 4 4 4 3 3 2 2 2 2 3 3 3 3 3 2 3 3 3
49 48 52 64 73 77 85 90 89 86 71 45 30 21 13 11 9 6 5 5 4 4 4 4 5 4 4 3 3 3 3 3 2 3 2 3 3 2 3 3 2 3 3
49 52 62 73 84 94 96 95 91 86 57 28 19 13 11 10 7 5 5 4 4 4 5 5 4 4 3 3 3 3 3 3 2 2 2 3 3 2 2 2 3 3 3
56 64 82 98 98 97 97 94 72 58 27 17 13 11 10 8 6 5 4 4 4 4 5 5 4 4 4 3 3 3 3 2 2 2 2 3 3 3 2 2 2 3 3
77 93 100 98 100 99 78 60 43 24 15 13 10 10 8 6 6 5 4 5 4 5 5 4 4 4 4 4 3 3 3 3 3 3 2 2 2 2 2 3 2 2 3
97 100 100 100 95 89 46 31 23 16 13 12 10 10 7 6 5 5 5 5 5 5 4 4 4 4 4 4 4 3 3 3 4 3 3 2 2 2 2 3 3 3 3
99 100 100 90 85 54 26 21 17 15 13 11 10 8 6 6 5 6 6 5 6 4 4 4 4 5 4 4 4 4 4 4 4 3 3 2 2 2 2 2 3 3 3
100 100 89 87 46 23 19 16 15 13 11 10 9 6 6 5 6 6 6 6 5 4 4 4 4 4 4 4 4 4 4 5 4 3 3 2 2 2 2 3 3 3 4
98 86 87 41 21 18 18 16 14 12 10 10 7 6 5 6 7 6 6 6 5 4 5 4 5 4 4 4 4 5 5 5 4 4 3 3 3 3 3 3 4 4 4
86 75 49 23 20 19 17 14 12 11 10 9 6 5 5 7 7 6 6 6 5 6 6 5 5 4 4 4 4 5 6 6 4 4 3 3 3 4 4 4 4 4 4
59 42 28 22 20 17 15 13 11 10 10 6 6 5 6 7 7 6 6 5 6 6 6 6 6 5 4 4 4 5 6 6 5 4 3 3 3 4 5 5 5 6 6
37 32 24 21 20 17 13 11 9 10 8 6 5 6 6 6 6 6 6 5 6 6 6 6 6 6 4 4 4 4 5 6 5 4 4 4 4 5 6 6 6 6 6
28 21 21 19 17 14 11 10 8 9 6 5 5 6 6 6 6 6 6 5 7 7 7 7 7 6 5 4 4 4 5 5 6 5 5 4 4 5 6 7 7 6 7
18 20 19 16 13 12 10 8 8 7 5 5 6 6 6 5 6 6 5 6 8 8 8 7 6 6 5 4 4 4 4 5 6 6 5 5 4 5 6 7 8 8 8
19 16 15 14 11 9 7 8 8 5 5 5 7 6 5 5 5 5 5 7 8 8 8 6 6 5 5 5 4 4 4 5 5 6 6 6 6 5 6 7 8 8 9
14 13 13 10 9 7 7 8 5 5 5 6 7 5 5 5 5 5 6 7 9 9 8 6 6 5 5 4 4 4 4 4 5 5 6 6 6 7 6 7 9 9 9
13 12 10 9 7 6 7 6 5 5 5 6 6 5 5 6 5 6 6 8 10 9 8 6 6 5 5 4 4 4 4 4 5 6 5 6 6 6 7 8 8 9 10
12 10 8 7 6 7 6 5 5 5 6 6 6 5 5 6 5 6 8 10 10 10 8 6 6 6 5 5 4 4 4 4 5 5 6 6 6 6 6 8 8 8 9
9 8 6 6 7 6 5 5 5 6 6 6 6 5 5 5 6 7 9 10 10 9 8 7 6 5 5 5 4 4 4 4 5 5 5 5 5 6 6 6 7 9 9
6 6 6 7 6 5 5 5 5 6 6 5 5 4 5 5 6 7 9 10 10 9 8 7 6 5 5 5 5 4 4 4 5 5 5 5 6 5 5 6 6 6 8
6 6 7 6 4 4 5 5 6 6 5 5 4 4 4 5 6 7 9 9 9 8 6 6 5 5 5 5 5 4 4 4 4 4 4 5 5 6 5 5 5 6 6
6 6 5 4 4 5 5 6 6 5 5 4 4 4 4 5 6 7 8 8 7 6 6 6 5 5 5 5 5 5 4 4 4 5 4 4 4 5 5 5 5 5 5
5 4 4 4 4 5 6 6 5 4 4 4 4 4 5 5 6 7 8 7 7 6 6 5 5 5 5 5 5 5 4 4 4 4 4 4 4 4 4 4 4 4 4

GFSGL_250_rhum_018.txt.gz
RH
79 75 72 61 53 54 46 45 50 55 62 71 80 76 74 57 38 27 22 16 14 11 9 7 5 4 4 3 3 3 3 3 4 5 4 4 3 3 2 3 3 3 3
83 75 62 55 54 49 50 56 57 64 74 74 76 72 54 34 22 20 16 14 11 9 7 5 4 4 3 3 3 3 4 4 3 4 3 3 3 3 3 2 2 3 3
79 68 54 56 55 60 64 65 71 78 76 74 75 61 30 19 20 17 14 10 9 7 5 4 4 3 4 4 4 4 4 3 3 3 3 3 3 3 3 2 2 3 3
75 59 64 64 70 73 71 77 87 81 81 88 73 32 19 19 17 13 10 9 7 5 5 4 4 4 4 4 4 3 3 2 2 2 2 3 3 3 3 2 2 2 3
77 77 77 76 78 74 78 91 84 91 87 69 44 24 18 17 13 9 9 8 5 5 4 4 5 5 5 4 3 3 3 3 2 2 2 2 2 3 3 2 2 2 3
81 85 78 70 74 78 87 90 94 94 64 47 40 20 16 13 9 8 8 6 5 4 4 5 5 5 5 3 3 3 3 3 2 2 2 2 2 2 2 3 2 2 2
82 79 68 74 82 92 96 94 91 64 52 41 22 16 14 10 8 8 7 5 5 5 6 5 5 5 4 4 3 4 4 3 3 3 2 2 2 2 2 2 2 2 2
76 68 77 88 97 97 97 84 52 48 32 19 16 14 10 8 8 7 6 5 5 6 6 5 5 4 4 4 4 4 3 3 3 3 3 3 3 3 2 2 2 2 3
77 83 88 98 100 98 63 41 34 22 18 16 14 11 9 8 8 7 5 5 5 6 5 5 5 4 5 4 4 4 3 3 3 3 3 3 3 3 2 2 2 2 2
90 86 100 100 93 69 41 24 20 18 16 14 11 10 8 7 8 6 5 6 6 6 6 5 4 5 5 5 4 4 3 3 3 4 4 4 3 3 2 2 2 2 2
95 100 100 98 70 49 34 30 19 16 14 11 10 9 8 8 7 6 6 6 5 5 5 4 4 5 5 5 4 4 3 3 4 4 4 4 3 3 2 2 2 2 2
100 98 82 62 54 32 22 15 14 14 12 10 10 8 8 8 6 5 6 6 5 5 5 4 5 5 5 5 5 4 3 3 4 4 5 4 3 3 2 3 3 3 3
73 65 54 41 26 18 15 16 16 13 11 10 10 8 8 7 5 5 6 6 5 5 5 5 6 5 5 6 5 4 4 4 4 5 5 4 3 3 3 3 4 4 4
62 46 24 14 14 14 16 15 14 12 10 9 10 9 8 5 5 6 6 5 5 5 5 6 7 6 6 5 5 5 4 4 4 4 5 4 4 3 3 4 4 4 4
30 22 19 18 17 16 14 15 14 11 9 10 9 9 5 5 5 6 5 5 5 5 5 7 8 7 6 5 5 5 4 4 4 4 5 5 4 4 3 4 4 5 5
32 28 25 17 15 14 14 13 11 9 9 10 10 7 5 5 6 6 5 5 5 5 6 8 8 8 6 6 5 5 5 4 4 4 4 5 5 4 4 4 5 6 6
29 30 19 15 14 14 12 11 10 9 10 10 9 5 5 5 6 6 6 5 5 6 7 8 9 8 6 6 6 5 5 4 4 4 4 5 6 5 4 4 5 6 6
24 16 14 14 13 10 10 10 10 9 9 9 6 5 5 6 6 6 6 5 5 6 8 10 10 9 7 6 6 5 5 5 5 4 4 5 6 6 5 4 5 6 7
15 14 13 12 10 9 10 10 9 8 8 6 5 6 6 6 5 6 5 5 5 7 9 10 10 9 7 6 6 5 5 5 5 4 4 5 5 6 6 6 5 6 7
12 11 10 10 10 9 9 8 8 7 6 5 5 6 6 5 5 5 5 5 5 7 9 10 10 10 8 6 6 5 5 5 5 5 4 5 5 5 7 6 6 6 7
10 10 10 9 8 7 8 8 7 5 4 5 6 6 6 5 5 5 5 5 6 7 9 10 10 9 8 7 6 5 5 5 5 5 5 5 5 5 6 7 7 7 6
9 9 8 8 7 7 7 6 5 4 4 6 6 7 6 5 5 5 4 5 6 7 9 10 10 9 7 6 6 5 5 5 5 5 5 5 5 5 6 6 7 7 7
8 8 7 7 7 6 4 4 4 5 5 6 6 6 5 5 5 4 5 5 6 7 8 9 9 8 7 6 6 5 6 5 5 5 5 5 5 5 5 6 6 7 7
6 6 7 6 4 4 4 4 5 5 6 6 6 5 5 5 5 4 4 6 6 7 7 8 8 6 6 6 6 5 5 5 5 5 5 4 5 5 5 5 6 6 6
6 4 4 4 4 4 5 5 5 6 6 6 5 5 6 7 6 5 5 6 7 7 7 6 6 6 6 6 5 5 5 5 5 5 5 5 4 4 4 4 5 6 6
3 4 4 5 5 5 5 5 6 5 5 4 5 6 7 7 7 6 5 6 7 7 6 6 6 6 5 5 5 5 5 5 5 5 5 4 4 4 4 4 4 4 5

GFSGL_250_rhum_021.txt.gz
RH
74 82 86 87 87 79 79 79 74 68 63 66 70 73 72 79 75 54 45 39 27 18 16 13 10 8 6 5 4 4 3 3 4 4 3 4 4 3 3 3 3 4 3
71 78 90 96 84 76 77 74 67 67 69 70 74 76 83 76 43 32 25 18 17 16 12 10 8 7 5 4 4 4 4 4 4 4 4 4 3 3 2 2 2 2 3
76 95 98 97 78 75 82 75 70 74 77 77 80 82 71 43 26 21 17 14 15 12 10 8 7 5 4 4 4 4 4 4 4 4 3 3 2 2 2 2 2 2 2
97 100 91 82 79 86 84 75 75 81 76 78 78 75 49 26 19 14 14 14 11 9 8 7 5 4 4 4 5 4 4 4 3 2 2 2 3 2 3 2 2 2 2
100 94 87 83 92 87 82 85 87 85 85 81 75 52 26 16 14 14 12 10 9 8 7 6 4 4 5 5 5 4 4 3 3 3 3 3 3 2 2 2 2 2 2
97 92 86 96 88 90 93 80 80 88 84 73 42 25 21 14 13 11 10 9 8 7 6 4 4 5 5 5 5 4 3 3 3 3 3 3 2 3 3 3 2 2 2
87 81 88 87 89 86 80 83 84 81 56 35 27 29 22 15 12 10 10 8 8 7 5 4 5 5 5 5 4 3 3 3 3 4 3 3 3 3 3 2 2 2 2
83 85 84 89 85 91 100 82 56 40 37 28 23 22 15 12 10 10 9 8 7 6 5 5 5 5 5 4 4 4 4 4 4 3 3 3 3 3 3 3 3 3 2
82 85 89 94 100 93 68 47 46 38 30 24 17 13 11 11 10 9 8 8 7 5 5 6 5 5 4 4 5 5 4 4 4 3 3 3 4 4 4 4 3 3 3
82 93 93 90 82 67 48 59 43 38 26 19 15 13 12 9 10 9 8 8 6 5 6 6 5 4 4 4 5 5 4 4 4 3 3 4 4 4 4 3 3 3 2
74 78 81 64 65 58 45 29 35 21 16 13 13 14 11 10 9 8 8 7 6 5 6 6 5 4 4 5 6 6 5 4 4 3 3 4 4 4 3 3 3 2 2
82 79 72 53 43 33 35 26 20 21 15 15 16 14 10 10 9 8 9 7 6 6 7 5 4 4 4 6 6 6 5 4 4 3 3 4 5 4 3 3 2 2 2
83 70 47 37 36 31 24 25 15 13 15 15 13 11 10 9 9 8 8 6 6 6 7 5 5 4 5 7 6 6 5 4 4 4 3 4 4 4 4 3 3 3 3
63 46 46 43 31 21 20 21 15 14 16 15 14 11 9 8 8 8 7 6 6 7 7 6 5 5 6 8 8 6 5 4 4 4 3 4 4 4 4 3 3 3 4
56 42 35 29 26 22 17 14 16 14 14 12 11 10 8 8 8 7 6 6 6 6 6 6 5 5 7 9 8 6 4 4 4 4 4 4 4 4 4 4 3 3 4
36 42 41 31 25 16 15 14 14 12 11 10 10 8 8 9 7 5 5 6 7 6 6 6 5 6 8 10 9 7 5 4 4 4 4 4 4 4 4 4 4 4 4
31 33 28 18 16 14 14 12 10 9 9 10 9 9 9 8 5 5 6 6 6 5 6 6 5 6 9 10 10 8 6 5 4 4 4 4 4 4 4 5 4 4 4
22 22 21 17 14 11 10 9 9 9 9 10 9 9 7 6 5 5 6 6 5 5 6 6 5 6 9 10 10 9 6 5 5 5 4 4 4 4 4 5 5 4 4
17 13 11 9 9 8 9 10 9 8 8 8 7 6 5 5 5 6 6 6 5 5 5 6 6 6 8 9 9 8 7 6 5 5 4 4 4 4 5 5 5 5 4
11 10 9 9 8 8 8 8 8 7 7 6 4 4 5 6 6 6 6 5 5 5 6 6 6 7 8 9 9 8 6 6 6 5 5 4 4 5 5 5 5 5 5
9 9 8 8 8 8 8 8 7 5 4 4 5 5 6 6 6 6 5 5 5 5 5 6 6 7 8 9 8 7 6 6 6 6 5 4 5 5 5 5 5 5 6
8 8 8 7 7 7 7 6 4 4 5 5 6 6 6 6 6 6 5 5 6 6 5 6 7 8 8 8 8 6 6 6 5 5 6 5 5 5 5 5 5 5 6
8 7 7 7 6 5 4 5 5 5 6 6 6 6 6 6 5 5 5 7 7 6 5 6 7 8 8 8 8 6 5 5 5 5 6 5 5 5 5 5 5 6 6
7 6 5 4 4 4 5 6 6 6 6 5 5 5 5 5 5 5 6 7 8 7 6 6 8 8 7 7 7 6 5 5 5 5 6 6 5 5 5 5 5 5 6
5 4 4 4 5 5 6 5 5 5 5 5 5 4 5 5 5 6 7 8 8 8 7 6 6 7 6 6 6 5 5 5 5 5 5 5 5 5 5 5 5 5 5
4 4 5 5 5 4 4 4 4 4 4 5 5 4 5 5 5 6 7 7 8 8 8 6 6 6 6 6 5 5 5 5 5 5 5 5 5 5 5 5 5 5 4

GFSGL_250_rhum_024.txt.gz
RH
65 60 53 56 60 73 88 88 81 83 87 80 85 90 81 69 72 78 59 37 28 21 16 14 12 11 9 7 5 4 4 4 4 4 3 3 3 3 3 3 3 3 3
92 89 67 60 76 88 80 74 76 76 80 90 91 83 75 82 79 58 34 26 22 17 15 14 13 10 8 6 5 5 4 4 4 4 4 4 3 3 3 3 3 3 2
88 64 65 75 83 71 67 73 70 77 86 83 80 87 88 75 57 43 37 35 21 16 14 13 10 8 6 5 5 4 4 4 3 3 4 4 3 2 2 2 2 2 2
59 66 74 73 68 72 72 75 81 82 82 79 84 75 63 42 33 33 36 27 20 15 12 9 8 7 6 6 4 4 4 4 3 3 3 2 2 2 2 2 2 2 2
66 72 65 67 76 76 77 82 77 68 65 78 70 53 46 33 28 21 23 18 13 10 9 8 6 7 7 4 4 4 4 4 4 3 3 3 3 3 3 3 3 2 2
72 65 68 79 84 88 91 77 66 68 72 70 51 45 43 36 25 19 16 13 11 9 9 8 7 7 6 4 4 4 3 3 3 3 3 3 3 3 3 3 2 2 2
66 62 75 81 95 94 83 69 66 78 84 62 51 39 38 35 16 13 13 12 10 9 8 8 8 7 5 5 5 4 4 4 4 4 3 3 3 3 3 2 2 2 2
68 79 87 91 88 76 64 73 75 71 54 40 34 26 20 18 16 13 10 10 9 8 8 8 8 5 5 5 5 4 4 4 4 4 4 4 3 3 2 3 3 3 2
75 83 92 76 67 79 83 69 57 40 32 22 18 20 23 19 14 12 11 9 9 8 8 9 7 5 6 6 5 4 4 4 5 5 4 4 3 3 3 3 4 4 3
90 88 76 76 68 60 61 52 41 46 51 47 24 16 13 12 13 11 10 10 10 9 8 8 5 5 6 6 6 5 4 5 5 4 4 4 3 3 3 4 4 4 3
85 76 74 68 67 66 45 37 38 28 29 24 25 18 13 12 12 9 9 10 9 8 7 6 5 6 6 6 6 5 5 6 5 5 4 4 3 3 3 4 4 4 3
72 72 70 66 65 61 47 47 33 36 24 20 17 14 11 10 11 11 10 10 8 8 6 5 5 6 6 6 6 5 5 7 6 4 4 4 3 3 3 5 4 3 3
71 65 65 61 45 38 37 34 33 20 16 12 10 9 10 10 10 11 9 9 8 6 5 5 6 6 6 6 5 5 7 8 7 4 5 4 3 3 3 4 4 3 3
65 61 57 40 34 30 28 23 18 14 12 11 10 9 9 9 8 8 9 8 6 5 5 6 6 6 5 6 5 5 7 8 7 4 4 4 4 3 3 4 4 3 3
57 50 40 35 31 22 18 13 12 11 10 9 9 8 8 8 7 7 8 7 6 5 5 6 6 5 5 6 5 5 7 8 7 5 4 4 4 3 3 4 4 4 3
42 32 28 22 18 17 16 14 11 9 10 9 8 8 7 8 7 6 5 5 5 6 6 6 6 5 5 5 5 5 7 8 6 5 4 4 4 4 3 4 4 4 3
34 28 25 26 21 14 11 9 9 10 9 9 8 8 7 6 4 5 5 5 6 6 7 7 6 5 5 5 5 6 7 8 7 6 4 4 4 4 4 4 4 5 4
30 29 21 15 12 11 11 10 9 9 9 8 7 7 5 4 4 5 6 6 6 6 7 6 5 5 5 5 6 6 7 8 8 6 5 4 4 4 4 4 4 5 4
21 18 16 13 12 10 9 8 8 7 7 6 5 4 5 6 6 6 6 6 6 6 6 6 6 6 5 4 6 6 7 9 7 6 5 4 5 4 4 4 4 4 5
15 12 11 10 9 9 8 8 7 6 5 5 4 5 6 7 6 6 6 6 6 6 6 6 7 7 5 5 6 6 7 8 7 5 5 5 5 4 4 4 4 4 5
10 9 8 8 8 8 7 6 5 5 4 5 6 6 6 6 6 5 5 5 5 5 5 6 8 8 6 5 6 7 7 8 7 5 5 5 5 5 4 4 4 4 5
8 7 7 7 7 6 4 4 4 5 6 6 6 5 5 5 5 5 5 5 5 5 6 7 8 9 8 6 6 7 8 7 6 6 5 5 5 5 5 4 4 4 5
7 6 6 6 5 4 4 5 5 5 5 5 5 5 5 5 5 5 5 5 6 6 6 7 8 9 9 6 6 7 7 6 6 6 5 5 5 5 5 5 4 4 5
6 6 5 4 4 5 6 5 4 4 4 4 4 4 5 5 5 5 5 5 6 6 7 7 8 9 9 7 6 6 7 6 6 5 5 5 5 5 5 5 5 5 5
5 4 4 4 5 5 5 4 4 4 4 4 4 4 4 4 5 5 5 6 6 6 6 7 7 8 9 8 7 7 6 6 6 5 5 5 5 5 5 5 5 5 5
4 4 4 5 4 4 4 4 4 4 4 4 4 4 4 4 4 4 5 5 5 6 6 6 6 7 7 8 7 6 6 6 5 5 5 5 4 4 5 5 4 5 5

GFSGL_250_rhum_027.txt.gz
RH
70 68 74 73 64 50 52 58 66 62 61 75 86 87 87 88 80 75 69 65 65 55 45 36 34 24 16 12 10 9 7 5 5 5 4 3 3 3 3 3 3 3 3
93 73 58 56 51 54 52 64 68 64 70 85 90 90 86 74 70 61 62 62 51 47 50 40 22 16 12 10 8 8 6 5 5 5 4 3 4 3 3 3 3 3 3
80 61 54 53 49 49 58 71 70 67 76 83 84 71 63 65 64 59 52 46 47 36 27 20 14 12 10 9 8 7 6 5 5 4 4 4 3 3 3 3 3 2 2
60 54 54 51 55 64 71 74 70 79 82 81 70 66 65 64 59 48 42 38 27 18 14 13 12 10 9 8 7 6 6 6 4 4 4 4 3 2 2 3 3 2 2
52 58 56 59 63 69 74 67 74 79 78 64 62 60 62 54 44 35 36 30 23 15 13 10 9 9 8 9 7 6 6 4 4 4 4 3 3 3 4 3 3 3 2
60 55 57 64 72 72 66 75 81 76 64 62 59 57 45 32 28 23 21 17 12 11 10 9 8 8 8 8 6 7 5 4 4 5 4 3 3 4 3 3 3 3 2
57 57 66 75 76 72 79 82 75 67 66 60 53 41 32 33 29 26 17 14 12 10 9 8 8 7 6 7 7 6 4 4 5 5 3 3 4 4 3 3 3 3 2
58 63 75 75 79 83 79 71 66 64 56 46 36 31 26 22 21 15 14 12 11 9 8 8 8 7 7 7 6 4 4 5 5 5 4 4 5 5 4 3 3 2 2
68 73 74 84 80 75 64 64 66 60 50 36 32 29 24 18 15 15 12 10 10 8 7 8 7 7 7 7 5 4 5 5 5 5 4 5 6 5 4 3 3 3 2
68 75 77 74 75 65 69 68 60 44 39 34 31 25 18 16 13 10 10 9 10 9 8 8 7 7 6 5 4 5 5 5 5 4 4 6 6 5 4 4 3 3 3
72 69 74 66 68 73 71 60 44 37 34 28 23 18 12 11 10 10 9 9 8 8 7 7 7 5 4 4 4 5 5 5 5 4 4 6 6 4 4 4 3 3 3
70 68 75 87 82 76 63 48 45 41 30 23 16 12 10 8 10 9 9 8 7 7 7 5 4 4 4 5 5 6 5 5 5 4 5 7 6 4 4 4 3 3 3
75 86 90 80 77 66 52 42 38 27 20 14 11 9 8 9 8 8 8 7 6 5 5 4 4 4 5 5 6 5 5 5 5 5 6 7 6 4 4 4 3 3 3
90 96 77 70 61 44 36 33 28 25 17 11 9 8 8 8 7 8 7 6 5 4 5 5 5 5 6 6 6 5 5 5 5 5 6 7 6 4 4 4 3 3 3
90 80 68 63 45 37 34 28 21 16 11 9 8 7 7 6 6 6 5 5 5 6 6 6 6 6 6 6 5 5 5 5 5 5 6 7 6 4 4 4 3 3 3
82 69 60 42 36 28 26 20 15 11 9 8 8 7 6 5 4 4 4 5 7 6 6 6 6 6 6 6 5 5 5 5 5 6 6 7 6 4 4 4 3 3 4
67 59 44 34 29 24 19 16 13 11 9 8 6 6 5 4 4 5 6 6 6 6 6 6 6 6 6 5 5 6 6 5 5 6 6 7 5 4 4 4 3 3 4
56 43 33 27 22 19 14 10 9 9 9 8 5 4 4 5 5 6 6 5 5 5 5 5 5 5 5 5 6 7 6 5 6 6 7 7 5 4 4 4 4 4 4
37 32 26 20 16 12 11 9 8 8 7 5 4 4 5 6 6 5 5 5 5 5 6 6 6 5 5 6 7 8 7 5 6 6 7 6 5 4 4 4 4 4 4
29 24 18 14 11 9 8 8 8 6 4 4 5 6 6 6 5 5 5 5 6 6 6 6 6 6 6 7 8 9 8 6 7 8 7 7 5 5 4 4 4 4 4
20 17 12 9 8 7 7 7 5 4 4 5 6 5 5 5 5 5 5 5 6 6 6 6 6 6 6 7 8 9 10 7 6 7 8 7 5 5 4 5 5 4 4
14 10 9 8 7 7 6 4 4 5 5 4 4 4 4 4 4 5 5 5 6 6 6 6 6 6 6 7 8 9 9 7 6 6 7 6 5 5 5 5 5 5 4
9 8 7 7 6 5 4 4 4 5 5 4 4 4 4 4 4 4 5 5 5 6 5 6 6 6 6 7 8 9 9 9 7 6 6 6 6 5 5 5 5 5 4
7 7 6 5 4 3 4 4 4 4 4 4 4 4 4 4 4 4 4 4 4 4 5 6 6 6 6 6 6 8 8 8 7 7 6 6 5 5 5 5 5 5 5
5 5 4 3 3 4 4 4 4 4 3 3 4 4 3 3 2 2 3 3 3 4 4 4 5 6 6 6 6 6 7 7 7 7 6 6 6 5 5 5 4 4 5
4 4 3 3 4 4 4 3 3 3 3 4 3 3 2 2 2 2 2 3 3 3 3 4 4 5 5 5 6 6 6 7 6 6 6 6 5 5 4 5 5 4 4

GFSGL_250_rhum_030.txt.gz
RH
64 62 54 46 55 61 59 60 55 54 56 60 66 68 69 76 82 81 71 68 62 56 50 45 34 31 27 20 14 10 10 8 7 8 6 6 5 4 5 4 3 3 3
61 56 54 67 73 67 60 60 56 56 61 62 69 74 81 83 74 66 64 61 57 45 39 34 30 25 22 16 11 8 7 6 6 6 7 5 5 5 4 3 4 3 3
75 99 97 73 64 62 60 56 57 59 61 66 76 81 79 70 67 63 60 51 43 39 32 26 21 17 13 10 8 6 6 6 6 6 6 5 5 4 4 4 4 3 2
99 90 63 59 63 60 59 58 63 60 66 72 77 77 64 64 64 56 46 38 34 28 24 18 15 12 9 7 7 6 6 6 6 6 6 5 4 4 4 4 3 2 2
63 55 57 57 67 72 62 65 66 69 76 77 71 64 66 59 47 41 35 30 23 19 17 13 11 9 8 8 8 7 7 6 6 6 5 4 4 4 4 4 3 3 3
57 58 64 71 75 68 67 70 71 75 72 65 67 70 56 44 41 37 29 23 17 14 12 10 9 8 8 8 7 7 6 6 6 5 4 4 4 5 5 4 3 4 3
66 74 76 71 67 69 71 67 68 68 70 81 65 58 47 40 37 30 23 16 12 10 10 9 8 8 8 7 6 6 6 6 5 4 3 4 4 5 4 3 3 4 4
64 71 74 69 68 70 65 67 70 77 78 66 66 54 44 37 29 24 18 12 10 9 9 9 8 7 7 7 6 6 5 4 4 4 4 5 5 4 4 3 4 3 3
70 83 77 65 71 70 73 73 72 89 91 80 65 51 47 39 29 17 13 10 9 9 8 8 7 8 7 6 4 4 4 4 4 4 5 5 4 4 3 4 5 4 3
85 82 68 68 66 69 65 85 98 96 84 69 61 50 39 31 21 14 10 9 9 8 8 7 6 6 5 4 4 4 4 4 4 5 6 5 4 4 4 6 5 3 3
75 64 64 73 74 73 80 94 100 94 74 54 44 38 35 26 16 10 8 8 8 7 6 5 5 4 4 5 5 5 5 5 5 5 5 4 5 4 5 6 6 4 3
66 68 77 74 75 90 100 100 96 74 55 46 43 35 24 16 10 8 8 8 7 5 4 4 5 5 5 6 5 5 5 5 6 5 4 4 4 4 6 6 5 4 3
70 80 78 81 95 100 100 95 73 57 49 41 31 20 14 10 8 8 9 8 6 5 4 5 6 6 6 6 6 6 6 6 6 5 4 4 4 5 6 6 5 4 3
80 80 83 86 98 100 89 71 59 49 40 30 19 13 10 9 8 8 8 6 5 5 5 6 6 6 5 5 5 6 6 6 5 5 5 4 4 5 6 6 5 4 3
83 79 76 95 98 88 70 62 48 38 28 19 13 10 9 9 7 7 5 5 6 6 6 6 5 5 5 5 5 5 6 5 5 6 5 4 5 6 7 6 5 4 3
76 74 92 96 77 66 57 48 36 26 19 12 9 8 8 7 6 5 5 6 7 7 6 5 5 5 5 5 5 5 5 5 6 7 6 5 5 6 7 6 4 3 3
78 88 85 69 59 50 42 31 23 19 12 10 8 7 5 4 4 5 6 6 6 6 6 5 5 5 5 5 5 5 5 6 7 8 6 5 6 6 7 5 4 4 4
83 78 70 72 57 44 30 23 17 11 10 9 8 7 4 3 4 5 6 6 6 5 5 5 5 5 6 6 6 6 6 7 8 8 7 6 6 7 6 5 4 4 4
68 65 61 48 39 29 21 14 10 8 6 6 6 6 4 4 5 5 4 4 5 5 5 6 6 6 6 6 6 6 6 7 8 9 8 6 7 7 6 5 4 4 4
58 47 40 30 23 18 12 9 8 5 5 4 4 4 5 5 5 4 4 4 4 5 5 6 6 6 6 6 6 6 6 7 8 9 8 6 6 7 6 4 4 5 5
46 41 28 21 15 11 9 7 5 4 4 4 4 5 5 5 4 3 4 4 4 4 5 5 5 5 5 6 6 6 6 7 8 9 9 7 6 6 6 5 5 5 5
27 22 18 13 10 8 6 5 4 3 4 4 5 5 4 3 3 3 4 4 4 3 3 4 4 4 5 5 6 6 6 7 8 8 9 8 7 6 6 5 5 5 5
21 16 12 9 7 5 4 3 3 4 4 4 4 4 3 3 3 3 3 3 3 3 3 3 3 3 4 4 5 5 6 6 7 7 9 8 7 7 6 5 5 5 5
13 10 7 5 4 3 3 3 4 4 4 3 3 3 3 3 3 3 3 2 3 3 3 3 3 3 3 4 4 5 6 6 6 7 8 8 7 7 6 5 5 5 5
8 6 4 4 3 3 3 4 4 3 3 3 3 3 3 3 3 3 2 2 2 2 3 3 3 4 3 3 4 4 5 5 6 7 7 8 7 6 6 6 5 5 5
5 4 3 3 3 4 4 3 3 3 3 3 3 3 3 3 2 2 2 2 2 2 2 3 3 3 4 4 4 4 4 5 5 6 6 7 7 6 6 5 5 5 5

GFSGL_250_rhum_033.txt.gz
RH
41 42 52 54 47 49 53 63 60 58 60 59 59 56 57 66 67 75 77 78 74 71 66 65 57 48 46 36 26 18 12 9 8 8 7 7 7 7 6 5 4 4 4
44 52 47 43 45 50 60 63 61 59 59 58 54 59 70 74 76 76 78 74 80 73 70 59 45 39 29 22 16 11 8 7 7 7 7 6 6 5 6 5 4 4 4
50 56 62 64 63 70 65 59 57 65 68 63 69 77 76 78 76 73 83 93 71 59 47 37 32 24 17 12 9 8 7 7 7 6 6 6 5 5 5 5 4 4 3
94 86 72 63 62 62 57 58 66 74 67 68 82 80 79 74 69 85 82 62 48 39 34 28 21 15 10 9 8 7 7 6 6 6 5 5 5 4 5 4 3 3 3
80 67 60 61 60 61 58 62 70 70 69 79 79 78 72 76 81 74 59 51 41 29 24 18 13 10 8 8 7 6 6 6 6 5 4 4 4 4 3 3 3 3 4
64 56 57 55 59 64 64 70 74 72 78 75 74 74 76 75 69 70 63 45 32 26 17 12 10 9 8 7 7 6 6 5 4 4 3 3 3 3 3 4 4 4 4
51 53 54 62 72 70 70 75 70 71 73 80 78 72 83 84 85 70 48 36 28 21 16 11 9 8 7 7 5 4 4 4 4 4 4 4 3 4 4 4 4 4 4
57 61 68 74 74 74 78 76 71 79 76 78 75 85 95 84 71 57 40 29 28 19 12 9 9 8 7 6 4 4 4 4 5 5 5 5 4 4 4 4 4 4 4
68 73 81 79 77 78 81 78 76 79 84 73 88 96 82 88 67 41 36 32 22 13 10 9 9 7 6 5 4 4 5 5 5 5 5 5 5 5 5 4 4 4 3
88 86 84 85 87 84 82 82 81 84 84 89 91 91 91 68 58 47 32 23 15 11 9 8 8 6 5 5 6 6 6 6 5 5 6 6 6 5 4 4 4 4 3
93 91 88 84 82 81 87 90 93 85 87 97 94 84 76 70 52 35 24 16 11 9 8 8 6 5 6 6 6 6 6 5 5 5 5 6 6 5 4 4 4 3 4
93 96 92 87 85 90 89 90 85 88 86 89 88 82 64 48 36 25 17 12 9 8 8 6 5 6 7 6 6 6 6 5 5 5 5 5 5 5 4 4 4 4 4
100 94 86 83 85 84 85 83 82 75 75 83 77 59 46 35 25 16 12 9 7 7 6 5 5 7 7 6 6 6 6 6 5 5 5 4 4 5 5 4 4 4 5
94 86 81 84 82 83 82 79 76 73 74 69 56 41 34 25 17 12 9 7 6 6 5 5 6 6 6 6 5 5 6 6 6 5 5 5 5 6 5 4 4 4 5
84 83 85 86 85 83 79 72 64 66 62 52 42 28 19 16 12 9 7 5 5 5 5 6 6 6 5 5 5 5 6 6 6 6 5 6 6 7 5 4 5 5 5
84 81 82 82 77 77 74 61 59 60 48 39 28 19 13 9 8 7 6 5 5 5 6 6 5 5 4 4 5 5 6 6 6 6 6 6 7 8 6 5 5 5 4
80 84 78 74 74 71 56 49 52 56 50 37 22 13 9 6 5 6 4 4 5 5 6 5 4 4 4 5 5 5 6 6 6 6 6 6 7 8 6 5 6 5 4
78 72 76 77 76 60 52 52 44 33 24 20 16 10 7 5 4 4 4 5 6 5 4 4 4 4 5 5 5 5 5 6 6 6 6 6 8 9 7 5 6 5 4
76 78 75 70 52 43 44 38 27 18 13 9 8 7 6 4 4 4 5 5 6 4 4 4 4 4 4 4 3 4 5 5 6 6 6 6 8 9 7 6 6 5 4
76 69 60 50 42 43 32 22 16 12 9 7 6 5 4 4 5 5 4 4 4 4 4 4 4 4 3 3 3 3 4 5 5 6 6 7 7 9 7 6 6 5 4
65 61 48 40 34 27 20 14 10 8 6 5 4 4 4 5 5 4 4 3 3 3 4 4 4 3 3 3 3 3 3 4 5 6 6 6 7 8 8 6 6 5 4
58 40 34 31 24 18 12 9 7 6 5 4 4 4 4 4 4 4 4 3 3 3 3 4 3 3 3 3 3 3 3 4 5 6 6 6 7 7 8 7 6 6 4
36 32 27 20 14 10 8 6 5 4 4 4 4 4 3 3 3 3 3 3 3 3 3 3 3 3 3 3 3 3 3 4 4 5 6 6 6 7 8 7 6 6 5
28 24 17 11 9 7 5 4 4 4 4 4 4 3 3 3 3 3 3 3 3 2 2 2 2 2 2 3 3 3 3 3 4 4 5 6 6 7 7 7 6 6 5
21 14 10 7 6 5 4 3 4 4 4 3 3 2 2 2 3 3 2 2 2 2 2 2 2 2 2 2 3 3 3 3 4 4 4 5 6 6 6 7 6 6 5
11 8 6 5 4 3 3 4 4 4 3 2 2 2 2 2 2 2 2 2 2 2 2 2 2 2 2 3 3 3 3 3 4 4 4 4 5 6 6 6 6 5 5

GFSGL_250_rhum_036.txt.gz
RH
80 74 56 48 42 42 41 37 47 58 57 59 60 57 58 59 56 55 56 66 67 72 68 64 68 70 55 39 32 26 18 13 10 8 7 6 5 5 5 5 4 4 4
83 90 67 53 60 47 48 54 57 56 55 63 65 61 62 63 59 60 70 71 74 74 67 76 73 60 47 35 25 17 14 9 8 7 7 6 5 4 4 4 4 4 4
82 68 62 60 47 56 60 58 54 56 65 74 67 65 69 72 75 80 88 83 81 75 77 69 63 54 37 27 18 11 8 8 8 7 6 5 4 3 3 3 3 3 3
59 69 68 71 70 66 63 54 56 68 78 73 71 74 80 78 85 94 88 90 71 78 70 70 60 39 30 18 11 9 8 8 7 6 4 4 3 3 3 3 3 3 3
81 88 84 78 74 68 64 57 64 77 80 78 78 87 85 88 87 80 78 73 74 71 74 63 43 31 18 13 10 9 8 7 6 4 4 4 3 4 4 4 4 3 3
100 100 96 89 88 70 56 61 70 74 75 80 88 82 93 97 86 78 79 73 73 72 62 47 32 19 16 11 9 8 7 6 5 4 4 4 4 4 4 4 5 4 4
94 90 84 78 71 60 61 69 76 87 93 86 85 87 83 81 79 81 80 72 68 66 52 33 24 18 12 9 8 6 6 4 5 5 5 5 4 4 4 4 5 5 4
82 78 77 71 64 68 72 79 91 95 95 99 96 96 92 84 84 82 77 68 65 54 37 30 22 13 9 8 6 6 4 5 6 6 6 5 4 4 4 4 4 4 5
85 77 68 64 80 82 83 91 96 92 98 94 94 93 88 90 88 84 69 62 54 47 38 24 15 10 8 6 6 5 4 6 6 6 6 5 5 4 4 4 4 5 4
73 67 77 86 85 86 94 96 93 98 96 95 92 89 91 94 90 74 58 54 48 36 25 15 10 8 7 5 5 5 5 6 6 6 6 5 5 5 4 4 4 4 4
70 82 86 89 92 98 99 100 100 99 96 85 89 94 94 91 77 62 62 51 36 26 18 11 8 6 6 4 5 5 6 6 6 5 5 5 5 5 5 5 4 4 4
87 92 96 98 100 98 100 99 97 94 82 92 95 95 93 80 65 60 47 32 24 16 11 8 6 5 4 5 6 6 6 5 5 5 5 5 5 5 5 5 5 6 5
99 100 100 95 96 100 100 94 91 79 95 95 92 93 88 69 53 41 29 22 16 11 8 6 5 4 4 5 6 6 5 5 5 5 5 6 6 6 5 5 6 6 5
100 97 95 100 100 94 88 90 83 93 93 94 87 78 62 50 42 26 22 16 11 8 5 5 4 4 5 6 6 5 5 5 5 5 6 6 6 6 6 5 6 7 5
100 100 100 98 87 86 94 89 89 90 90 85 75 50 39 34 29 23 15 11 8 6 4 4 4 5 5 5 5 5 5 5 5 5 6 6 6 6 6 5 6 7 5
100 100 91 85 84 90 88 87 87 85 77 70 46 32 26 20 18 14 9 7 6 5 5 4 6 5 5 5 5 4 4 5 5 5 5 6 6 6 6 6 6 7 6
89 83 81 89 92 82 80 77 83 87 88 60 49 42 30 17 11 8 7 5 5 4 5 6 6 5 4 4 4 4 5 5 4 4 4 6 6 6 6 6 7 7 6
81 86 91 82 79 78 76 76 67 57 42 46 42 30 19 12 9 6 5 4 4 5 5 5 5 4 4 4 4 4 4 4 3 3 4 4 6 6 6 6 7 7 5
88 82 77 77 75 74 67 59 49 35 29 22 20 14 10 8 6 4 4 4 5 5 4 4 4 4 4 4 4 4 4 3 3 3 4 4 5 6 6 6 6 7 6
78 76 75 78 70 62 59 42 31 26 20 16 10 8 7 5 4 4 4 5 4 4 4 4 3 4 4 4 4 3 3 3 3 3 3 4 5 6 6 6 7 7 7
78 78 78 64 59 49 32 28 23 19 15 10 7 5 4 4 4 5 4 4 4 4 3 3 3 4 3 3 3 3 3 3 3 3 3 4 4 6 6 6 6 7 7
77 70 63 57 38 32 27 21 18 12 8 6 4 4 4 4 4 3 3 3 3 3 3 3 3 3 3 3 2 3 3 3 3 3 3 4 4 5 5 6 6 7 7
69 60 44 33 30 26 19 14 8 6 5 4 3 4 4 3 3 3 3 2 3 3 3 2 2 2 2 2 2 2 2 2 3 3 3 4 4 4 5 5 6 6 7
52 36 33 27 24 18 12 7 6 4 3 3 4 4 3 3 3 2 2 2 2 2 2 2 2 2 2 2 2 2 2 2 3 3 3 4 4 4 5 5 6 6 6
32 29 25 24 17 10 7 5 4 3 3 4 4 3 2 2 2 2 2 2 2 2 2 2 2 2 2 2 2 2 2 2 3 3 4 4 4 4 5 5 6 6 6
26 25 24 14 8 6 5 4 3 3 4 3 3 2 2 2 2 2 2 2 2 2 2 2 2 2 2 2 2 2 2 2 3 3 4 4 4 4 4 5 6 6 6

GFSGL_250_rhum_039.txt.gz
RH
68 84 88 88 100 100 90 99 99 83 69 58 55 50 53 56 67 73 79 76 74 61 62 72 72 77 80 65 52 44 40 34 27 20 14 8 6 5 4 3 3 3 3
87 100 100 100 100 97 100 99 73 62 56 61 59 64 57 61 76 77 77 69 61 64 76 74 74 76 66 58 51 45 38 30 22 15 9 7 5 5 4 3 3 3 3
100 100 100 100 92 85 66 52 55 62 69 70 72 69 66 68 67 64 71 64 76 92 84 77 75 68 71 60 48 45 36 23 15 10 8 5 5 4 3 3 4 4 4
100 97 87 72 61 56 56 52 59 71 76 82 72 72 76 72 75 64 68 71 77 73 74 79 79 86 77 55 46 41 26 16 11 9 6 4 4 4 4 5 4 4 4
74 70 72 73 66 56 59 73 89 86 78 78 70 72 68 72 72 73 78 87 87 86 87 90 95 85 63 50 38 26 17 12 9 7 5 4 4 4 5 4 4 4 3
71 70 69 67 69 78 89 98 98 92 80 75 75 73 82 76 84 91 92 95 92 90 94 98 88 74 54 36 26 21 14 10 8 6 4 4 4 5 5 4 4 4 4
73 76 76 80 85 98 100 100 94 78 74 79 81 87 85 91 91 90 93 96 91 98 99 96 79 56 34 25 21 15 10 8 6 4 4 5 5 5 4 4 4 4 4
80 84 85 85 95 100 99 84 73 81 86 83 85 88 94 90 89 95 100 90 96 100 100 89 60 36 28 22 15 11 8 6 5 4 5 5 5 5 4 4 4 4 4
90 84 84 95 97 86 76 77 86 89 86 88 93 92 92 97 100 100 91 93 99 100 90 71 37 29 21 16 10 8 6 5 5 5 6 6 6 5 4 4 4 4 4
78 90 92 90 77 79 87 90 90 88 86 95 99 100 100 100 96 94 93 98 97 86 77 44 32 24 18 11 8 7 6 5 5 5 6 5 5 4 4 4 5 4 5
86 91 82 82 92 92 82 83 89 90 98 98 99 99 98 95 96 94 93 93 82 74 47 33 24 17 12 8 7 6 5 5 6 5 5 5 4 4 4 5 5 5 5
84 86 90 84 78 78 87 92 92 98 100 96 98 100 99 95 92 93 93 77 57 37 28 21 15 12 8 6 5 5 5 6 6 5 5 4 4 5 5 5 5 5 6
81 78 72 73 83 91 97 100 100 97 94 99 97 98 97 95 97 88 69 49 29 21 18 15 11 8 6 5 4 5 6 6 5 4 4 4 5 5 5 5 5 5 6
83 91 97 99 100 100 100 99 94 94 98 91 91 95 95 93 83 60 43 29 22 17 13 9 7 6 4 5 5 5 6 5 4 4 4 4 5 5 4 4 5 5 5
89 95 99 97 94 95 87 90 98 94 90 88 84 81 73 70 49 33 26 22 20 14 8 6 5 4 5 5 6 5 5 4 4 4 4 4 4 4 4 3 5 5 5
96 88 82 82 81 84 86 84 85 83 80 78 73 62 53 33 27 24 18 14 11 7 6 4 4 4 5 5 5 4 4 4 4 4 4 4 4 3 3 3 4 5 5
100 94 87 83 87 86 84 84 85 82 75 72 64 49 32 26 23 18 14 10 8 6 4 4 5 5 4 4 4 4 4 4 4 4 4 4 3 3 3 3 4 5 5
78 85 86 97 91 82 79 76 66 66 72 67 45 34 30 25 19 13 8 7 5 4 4 5 4 4 4 4 4 3 4 4 4 4 4 3 3 3 3 3 4 5 6
78 90 93 83 74 72 64 63 66 63 45 36 26 25 22 19 12 7 5 4 4 5 5 4 3 3 3 3 3 3 4 4 4 3 3 3 3 3 3 3 4 5 5
90 90 82 79 71 64 64 62 53 41 35 23 21 16 16 11 8 6 4 4 4 4 3 3 3 3 3 3 3 3 3 3 3 3 3 3 3 3 3 3 4 5 6
84 82 73 70 69 63 56 45 38 33 24 20 14 12 8 6 4 4 5 4 4 3 3 3 3 3 3 3 3 3 2 2 3 3 3 2 3 3 3 4 4 5 5
80 72 71 67 58 53 42 41 37 27 21 13 10 7 5 4 4 4 4 3 2 2 3 3 3 3 2 2 2 2 2 2 2 2 2 2 3 3 4 4 4 5 5
71 71 63 57 47 43 42 36 27 19 12 8 6 4 4 4 4 4 3 2 2 2 2 3 3 2 2 2 2 2 2 2 2 2 2 2 3 3 4 4 4 4 5
65 57 52 43 44 39 32 24 15 10 6 5 4 4 4 4 3 2 2 2 2 2 2 2 2 2 2 2 2 2 2 2 2 2 2 2 3 3 4 4 4 4 5
55 47 45 42 34 25 17 12 8 6 4 3 4 4 4 3 2 2 2 2 2 2 2 2 2 2 2 2 2 2 2 2 2 2 2 3 3 3 4 4 4 4 5
47 42 35 27 19 14 9 7 5 4 3 3 4 3 2 2 2 2 2 2 2 2 2 2 2 2 2 2 2 2 2 2 2 2 2 3 3 4 4 4 4 4 4

GFSGL_250_rhum_042.txt.gz
RH
54 79 100 100 100 100 100 100 100 100 96 100 100 100 86 63 57 64 67 68 67 69 70 68 68 68 70 67 73 82 77 67 59 66 42 28 23 19 11 6 4 4 3
52 56 93 100 99 81 100 100 100 100 100 100 100 82 68 63 66 77 80 76 83 83 79 77 76 72 78 79 88 82 74 64 60 54 35 26 19 12 8 5 4 3 4
60 65 63 67 96 100 100 100 100 100 100 96 78 71 59 89 84 83 87 89 86 79 78 74 72 78 82 89 82 75 70 65 60 38 27 22 16 9 7 5 4 4 4
61 63 73 95 100 100 100 98 95 89 70 68 61 72 76 75 79 83 91 88 77 79 77 83 88 88 91 84 73 75 69 66 43 28 22 17 12 7 5 5 4 4 4
81 77 78 85 100 99 100 83 72 69 59 62 79 83 79 94 100 98 98 89 89 91 94 96 90 89 86 78 79 70 64 46 29 22 18 13 8 6 4 4 4 5 4
77 83 87 84 78 79 75 71 62 59 70 89 89 90 98 99 100 98 85 81 92 94 92 87 91 92 84 82 77 74 55 31 23 19 12 9 6 5 4 5 5 5 5
51 80 89 89 83 74 65 62 67 84 99 87 91 98 100 98 86 84 88 86 87 93 93 98 92 83 85 78 67 55 36 27 22 12 11 7 5 4 5 5 5 5 4
49 58 74 80 79 78 77 84 96 99 88 99 100 96 91 91 91 84 79 94 97 96 99 93 88 89 79 66 50 34 28 21 13 10 8 5 5 5 5 5 5 4 4
76 84 88 86 86 91 98 100 97 98 100 97 98 100 88 78 87 87 91 93 93 96 88 92 88 77 66 48 34 27 21 13 7 7 6 5 5 6 5 5 4 4 3
100 100 100 100 100 100 99 99 100 97 100 88 84 80 82 88 90 89 83 82 87 90 90 85 78 67 46 33 28 19 13 8 6 5 5 5 6 6 5 5 4 4 4
100 100 100 100 98 92 92 98 98 83 78 83 87 87 84 86 87 84 83 87 85 84 78 70 58 44 33 26 18 13 8 6 5 5 5 6 6 6 5 5 4 4 4
97 96 94 93 97 100 99 92 87 95 95 93 95 95 94 90 94 98 93 87 78 67 60 53 41 30 26 19 11 7 6 4 5 6 6 5 5 5 4 5 4 5 4
94 100 100 100 92 93 82 85 87 82 86 81 93 98 94 98 95 90 85 75 72 57 45 36 27 21 16 10 6 5 4 5 5 5 5 5 5 5 4 4 4 4 4
82 80 84 74 75 88 93 87 79 74 68 76 88 93 90 87 82 70 64 65 56 47 34 29 23 16 9 6 4 4 5 5 5 4 5 4 4 4 4 4 4 4 3
74 77 84 87 82 80 79 76 72 77 79 79 82 83 77 71 64 59 56 47 39 32 25 21 12 7 5 4 4 5 5 5 4 4 4 3 4 4 4 4 4 3 3
87 81 73 75 88 92 80 70 74 74 79 78 74 66 65 58 52 43 38 32 24 19 12 8 6 4 4 4 4 5 4 3 3 3 3 3 4 4 4 4 3 3 3
77 80 89 96 90 77 85 80 83 81 73 66 68 64 61 53 43 36 31 24 19 12 8 5 4 4 5 4 4 3 3 3 3 3 3 3 3 3 3 3 3 3 3
96 95 87 84 86 86 84 75 71 71 68 68 65 61 54 43 35 26 18 15 10 7 4 4 4 4 4 3 3 3 3 3 3 3 3 3 3 3 3 3 3 3 3
74 74 68 66 71 64 67 74 76 71 66 64 55 48 44 34 22 15 9 7 6 4 4 4 4 3 3 3 3 3 3 3 3 3 3 3 2 2 3 3 3 3 3
58 53 51 65 74 75 75 72 70 65 57 49 46 39 30 20 13 8 6 5 4 4 4 4 3 3 3 3 3 3 3 3 3 2 2 2 2 2 3 2 3 3 3
66 74 80 90 77 70 73 68 57 49 47 45 34 24 15 10 7 6 5 4 4 4 3 2 2 3 3 2 2 2 2 2 2 2 2 2 2 2 3 2 3 3 3
94 99 95 78 71 68 58 49 46 45 40 32 24 14 8 6 4 4 4 4 4 3 3 3 2 2 2 2 2 2 2 2 2 2 2 2 2 2 2 2 3 3 3
98 86 76 70 67 54 47 45 44 38 30 21 11 7 5 4 4 4 4 3 3 2 3 2 2 2 2 2 2 2 2 2 2 2 2 2 2 2 2 3 3 3 3
71 66 66 64 50 47 47 43 31 23 16 9 6 5 4 4 4 4 3 3 3 2 2 2 2 2 2 2 2 2 2 2 2 2 3 3 2 2 2 3 3 3 4
65 64 59 48 45 43 34 24 17 11 8 6 5 4 4 4 3 3 2 2 2 2 2 2 2 2 2 2 2 2 2 2 2 2 3 2 2 2 3 3 3 3 4
57 47 44 40 34 25 18 12 8 6 5 4 4 4 3 3 2 2 2 2 2 2 2 2 2 2 2 2 2 2 2 2 2 2 2 2 2 2 3 3 3 3 4

GFSGL_250_rhum_048.txt.gz
RH
53 57 63 58 76 54 57 72 93 100 100 100 100 100 100 100 100 100 100 100 100 100 100 98 88 76 67 73 79 75 72 59 56 64 62 60 61 65 59 50 47 42 41
99 76 69 63 60 55 57 48 55 71 100 100 100 100 100 100 100 100 100 100 100 100 93 89 95 94 93 86 70 70 66 68 64 58 61 59 66 68 60 50 43 39 31
75 62 90 94 57 64 71 69 67 67 66 72 85 100 99 99 99 97 88 90 90 89 90 91 80 74 70 73 74 65 75 66 57 52 57 65 67 67 49 43 38 35 27
43 43 74 79 76 85 73 70 67 71 73 74 70 72 73 78 83 81 74 71 81 89 85 80 75 72 82 74 71 75 61 54 52 58 64 68 62 57 44 32 27 24 20
67 80 79 72 70 54 53 55 58 58 60 60 50 52 55 59 61 72 89 95 91 89 88 80 82 80 78 76 63 56 58 65 72 70 64 56 53 41 33 22 16 12 11
36 33 34 40 53 48 63 59 52 50 56 53 59 62 75 89 91 88 91 98 94 97 90 80 80 74 61 60 60 66 85 91 77 74 62 59 48 35 27 15 9 8 7
38 38 41 37 39 45 51 59 70 80 86 92 96 97 95 98 98 99 98 94 86 90 84 70 63 61 72 78 86 87 84 83 79 68 61 54 40 34 20 10 6 5 4
46 48 52 62 69 72 76 77 79 83 89 94 90 84 89 92 92 90 79 76 76 69 66 69 71 86 83 81 78 79 83 82 72 61 50 37 23 14 10 7 6 4 4
75 58 53 55 54 57 58 64 74 77 76 78 83 92 96 93 84 74 74 71 79 79 78 87 88 87 81 77 78 73 71 72 66 56 39 23 11 8 6 5 4 4 5
54 81 87 79 76 80 91 92 88 91 93 88 100 98 73 67 65 79 88 79 83 86 89 86 79 82 75 73 70 65 59 56 45 32 20 11 7 5 4 4 4 5 4
56 67 92 100 100 99 98 96 88 77 98 100 89 76 68 83 88 96 90 83 86 84 86 80 77 79 77 70 67 60 52 38 24 14 9 7 5 4 4 4 4 4 3
66 70 70 70 75 78 76 78 84 90 85 87 84 75 79 93 89 82 76 84 90 86 80 83 80 76 70 62 53 46 33 18 12 9 6 5 4 4 4 4 3 3 3
64 62 61 61 74 72 69 72 78 83 80 80 80 81 76 69 76 74 78 88 85 79 75 70 74 69 62 53 43 31 19 12 10 7 5 4 5 5 4 3 3 4 3
72 70 63 67 68 82 76 75 79 72 68 69 66 66 81 81 77 82 89 84 76 64 71 80 73 64 58 44 32 23 13 10 7 5 5 5 4 4 3 3 3 3 3
75 74 76 79 70 70 74 76 80 75 74 61 64 74 79 78 81 93 85 84 80 74 75 75 63 55 45 30 22 12 8 6 5 5 5 4 3 3 3 3 3 3 3
84 90 97 85 88 79 76 84 76 66 64 71 76 75 81 86 80 84 84 88 87 78 71 58 48 35 22 16 11 8 6 5 4 4 4 3 3 3 3 3 3 3 3
83 97 95 99 90 95 86 78 53 78 76 76 78 82 83 86 83 89 88 88 88 78 55 42 32 21 14 9 7 6 5 4 3 3 3 3 3 3 3 3 3 3 2
99 94 100 94 69 67 67 63 59 66 73 76 86 94 98 99 95 87 87 78 82 59 40 30 18 11 8 6 6 5 4 3 3 3 3 3 3 3 3 3 2 2 2
90 94 100 76 62 72 90 76 80 96 90 98 95 98 100 99 99 87 90 79 58 45 33 18 11 8 6 5 4 4 3 3 3 3 3 3 3 3 2 2 2 2 2
97 95 96 64 76 90 91 95 96 100 100 99 98 98 100 86 85 81 73 53 42 31 17 12 8 6 5 4 3 3 3 3 2 2 3 3 2 2 2 2 2 2 2
93 81 74 81 95 100 100 100 100 100 100 100 100 100 89 81 71 61 47 43 28 16 10 8 6 5 4 3 3 3 2 2 2 2 2 3 2 2 2 2 2 2 2
97 89 88 86 95 100 100 100 100 100 100 100 98 82 68 65 55 44 38 24 14 8 6 5 4 3 3 2 2 2 2 2 2 2 2 2 2 2 2 2 2 2 2
72 87 98 100 100 100 100 100 100 100 96 74 74 67 59 46 36 28 18 11 8 6 4 3 3 3 2 2 2 2 2 2 2 2 2 2 2 2 2 2 2 2 3
98 100 100 100 100 100 100 100 96 83 76 74 66 51 35 28 22 13 9 6 5 4 3 3 2 2 2 2 2 2 2 2 2 2 2 2 2 2 2 2 2 2 3
87 98 100 98 91 82 87 83 70 70 57 51 40 31 24 14 8 6 5 4 3 3 2 2 2 2 2 2 2 2 2 2 2 2 2 2 2 2 2 2 2 2 2
85 81 78 78 80 77 67 60 54 49 42 33 24 16 9 6 5 4 4 3 2 2 2 2 2 2 2 2 2 2 2 2 2 2 2 2 2 2 2 2 2 2 2

GFSGL_250_rhum_054.txt.gz
RH
100 90 85 66 60 94 100 100 99 99 97 100 100 98 68 66 84 94 96 96 94 100 100 100 100 100 100 99 88 79 59 73 92 95 96 91 79 75 66 63 67 69 62
99 99 100 90 100 100 100 100 100 100 100 84 100 90 70 99 100 92 99 98 100 100 100 100 99 90 84 79 66 69 80 98 81 78 80 78 70 68 67 71 71 63 55
100 100 100 96 100 100 100 100 100 100 100 100 100 100 100 100 98 99 100 100 100 98 88 86 85 70 77 88 80 91 85 76 92 75 77 77 72 84 84 72 63 52 56
85 77 100 100 71 96 100 100 100 100 100 100 100 94 91 98 100 99 87 62 56 51 60 68 77 72 74 88 83 81 78 98 98 76 64 69 78 80 70 60 53 59 59
57 71 93 100 100 100 100 100 100 100 100 100 80 67 69 63 54 61 67 74 70 72 72 69 87 93 81 62 71 96 88 76 69 69 72 91 80 70 68 61 59 50 50
99 100 100 100 100 100 100 100 92 83 68 48 43 44 48 54 60 64 68 71 74 74 88 100 85 65 62 72 85 84 73 67 71 72 79 78 70 68 60 56 51 50 40
77 75 77 97 96 91 78 72 51 43 41 43 44 49 54 55 62 64 72 81 83 89 90 75 67 67 67 66 71 73 70 65 68 86 84 75 77 61 53 57 55 40 24
52 52 54 51 44 40 38 39 43 48 49 46 46 42 46 48 58 62 68 70 72 75 72 68 73 70 69 68 79 72 72 80 84 85 89 90 72 70 63 61 44 23 13
48 57 53 55 49 39 42 49 50 57 59 60 53 51 62 79 70 67 64 67 73 75 77 81 86 75 74 77 70 68 81 98 100 100 95 86 86 85 66 48 26 12 8
90 76 63 53 48 46 50 46 49 50 45 54 61 70 77 77 72 79 88 86 80 87 76 74 71 75 76 82 78 81 88 91 97 100 94 95 84 79 73 36 20 9 7
91 100 100 100 74 61 61 60 71 65 66 48 56 70 80 71 72 82 86 100 94 86 88 77 79 72 68 78 88 88 87 98 100 100 96 96 91 80 46 26 13 8 6
82 99 97 96 100 82 58 68 74 67 65 66 65 61 72 71 76 81 99 100 96 97 100 86 83 68 75 82 90 96 94 96 100 100 94 82 79 47 25 14 10 7 4
90 96 87 97 97 100 92 66 71 68 68 75 63 56 64 81 82 93 96 90 97 100 98 86 79 69 86 96 98 100 100 100 100 96 80 74 45 23 13 9 7 5 4
100 88 99 100 96 90 94 81 65 74 84 78 73 62 74 90 89 89 88 98 100 92 79 78 77 75 91 100 100 100 100 99 100 79 69 47 27 15 10 6 5 4 3
100 100 100 100 99 94 99 98 84 78 63 79 70 68 100 98 94 90 93 100 96 94 89 84 75 79 96 100 100 100 100 100 89 69 51 32 15 10 7 4 4 3 3
99 100 100 100 100 95 100 100 100 73 88 85 67 96 100 99 97 92 86 83 84 96 83 67 78 91 95 100 100 100 100 99 81 63 29 18 10 8 5 4 3 3 2
100 100 100 100 100 98 100 99 76 72 86 74 79 100 100 100 98 98 98 82 70 80 69 76 87 99 100 100 100 100 99 78 59 33 18 10 7 6 4 4 3 2 2
100 100 97 96 98 95 82 71 79 68 65 93 100 100 100 100 96 95 88 76 61 61 70 86 93 98 96 94 96 92 76 50 28 15 10 7 5 4 4 3 3 2 2
100 99 98 99 87 82 74 84 68 68 98 100 100 100 100 100 97 82 72 59 59 62 87 88 89 89 88 88 86 58 36 21 13 9 6 4 4 3 3 3 2 2 2
95 92 72 69 81 83 83 81 97 100 100 100 100 100 100 95 70 50 49 53 57 76 81 84 88 81 84 77 50 29 18 11 7 5 4 3 3 3 2 2 2 2 2
85 91 88 81 88 90 100 100 100 100 100 100 100 100 88 58 50 47 46 50 68 81 81 80 72 68 54 33 20 11 9 6 4 3 3 3 3 2 2 2 2 2 2
94 92 95 98 100 100 100 100 100 95 91 100 90 54 50 49 43 39 51 66 75 72 73 58 49 36 21 14 9 7 5 4 3 3 3 2 2 2 2 2 2 2 2
99 100 100 100 100 100 100 100 89 90 100 81 52 44 38 37 40 48 59 64 65 54 40 32 23 15 10 7 5 4 3 3 3 3 2 2 2 2 2 2 2 2 2
100 100 100 100 100 83 75 80 91 84 52 44 38 33 34 40 47 58 52 42 33 28 22 15 10 7 5 4 3 3 3 3 3 2 2 2 2 2 2 2 2 2 2
91 93 83 75 73 76 70 47 41 34 34 32 30 40 44 47 42 34 26 23 19 15 10 7 5 4 3 3 3 3 3 2 2 2 2 2 2 2 2 2 2 2 2
69 78 92 83 74 49 35 31 28 27 27 36 41 40 34 27 20 17 15 12 8 6 5 4 3 3 3 3 2 2 2 2 2 2 2 2 2 2 2 2 2 2 2

GFSGL_250_rhum_057.txt.gz
RH
91 86 84 94 86 78 68 65 61 56 87 85 99 92 87 100 89 83 85 75 56 86 98 100 100 100 95 88 83 72 70 87 90 85 80 87 89 91 90 87 82 71 68
72 77 90 80 87 86 70 49 48 70 94 100 96 100 99 100 100 100 71 99 100 100 100 100 100 74 68 70 78 87 87 88 89 90 80 81 69 90 93 86 77 73 65
65 82 83 89 76 87 80 81 70 85 100 100 100 100 100 100 100 100 100 100 100 96 74 59 64 66 79 90 94 99 100 100 92 80 75 82 86 90 88 83 78 73 71
54 59 61 67 79 98 100 100 100 100 100 100 100 100 100 100 100 100 100 98 80 68 54 56 62 66 68 74 86 96 98 93 86 80 85 83 84 82 75 67 73 72 93
41 43 53 72 92 98 100 100 95 100 100 100 100 100 100 100 100 100 76 59 46 44 45 53 62 68 72 80 87 100 100 93 93 90 91 82 94 76 72 73 72 73 78
51 60 89 100 100 100 100 100 100 100 100 100 100 100 100 94 73 60 46 43 47 53 61 69 70 72 80 79 88 81 79 82 83 87 85 78 75 83 79 82 72 68 72
62 52 51 71 77 82 88 96 99 93 90 66 57 62 48 49 45 44 53 49 50 58 64 70 67 85 86 93 89 90 89 88 87 90 79 74 72 73 68 74 73 66 82
46 49 60 57 56 51 47 47 45 45 43 40 39 42 44 45 43 46 46 48 48 52 61 70 79 87 87 100 98 99 97 87 86 89 83 74 72 69 71 75 70 72 97
54 46 52 61 72 82 77 82 82 77 75 64 51 51 52 55 60 58 54 49 52 52 59 84 78 79 90 92 87 95 96 97 99 94 85 87 84 80 68 79 75 79 87
45 43 69 77 58 72 79 72 84 94 93 86 87 77 59 57 57 65 65 59 54 58 56 84 87 89 84 77 85 92 99 99 100 100 92 88 79 84 84 88 82 83 65
49 49 40 53 52 47 50 52 67 71 83 89 83 81 87 92 79 68 59 50 66 69 59 80 90 97 92 87 84 86 92 100 100 100 96 85 81 89 100 98 85 65 49
71 62 57 57 46 46 54 65 79 100 100 100 95 88 85 86 81 88 70 68 69 58 67 90 86 88 93 89 90 87 100 100 97 100 94 83 82 91 93 84 87 65 44
72 78 73 69 71 71 74 80 90 100 100 90 98 94 88 92 84 79 79 72 68 54 79 99 81 86 95 91 88 98 94 92 100 93 79 76 82 92 86 87 72 48 33
72 93 92 96 95 91 100 100 100 100 100 90 99 100 98 99 94 97 86 78 58 75 88 88 85 97 100 99 92 82 77 83 89 78 73 75 82 82 80 63 51 24 14
100 100 100 100 94 99 100 100 100 100 100 96 100 100 100 100 94 88 84 67 62 91 83 92 99 100 86 88 99 70 62 76 70 64 64 69 68 68 63 40 20 11 6
100 100 100 99 100 100 100 99 99 100 94 99 100 100 100 98 91 89 73 74 94 93 96 100 99 100 98 83 60 60 61 58 60 58 64 60 54 48 36 25 13 7 6
100 100 98 100 100 95 99 88 97 100 100 100 100 100 98 90 72 71 72 85 100 100 100 100 100 100 93 64 53 58 60 55 51 58 55 49 42 31 20 12 7 5 4
100 100 100 100 95 82 79 100 100 100 100 100 100 98 92 79 66 70 95 100 100 100 100 100 99 81 53 46 54 56 48 45 48 49 40 34 23 16 9 6 5 4 4
100 100 100 96 92 100 100 100 100 100 100 93 76 73 62 61 80 100 100 100 100 100 100 87 53 43 41 49 50 46 42 43 36 31 26 16 11 8 5 5 4 4 3
67 78 83 88 88 92 94 99 96 89 87 80 74 64 75 100 100 100 100 100 100 100 98 51 41 36 41 47 45 40 34 28 22 17 13 9 6 4 4 4 4 3 2
53 61 78 89 86 86 86 91 91 93 89 80 94 100 100 100 100 100 100 100 100 78 47 36 35 45 44 39 36 26 20 16 12 9 7 5 4 4 4 4 3 2 2
75 78 82 93 98 96 90 95 98 98 100 100 100 91 83 87 99 100 100 90 54 41 32 36 40 39 33 26 16 13 11 9 6 5 4 4 4 4 4 3 2 2 2
86 85 85 89 89 87 84 98 100 100 97 75 78 80 90 97 100 96 55 38 28 28 32 33 31 25 16 13 10 8 6 5 4 3 4 3 3 3 3 2 2 2 2
84 88 86 88 95 99 100 100 96 89 89 78 77 85 95 79 45 33 27 26 28 28 30 23 15 10 8 6 5 4 4 3 3 4 3 3 2 2 2 2 2 2 2
80 76 81 79 78 81 75 68 62 62 70 72 64 52 41 29 26 25 26 26 26 20 13 8 6 5 5 4 3 3 2 3 3 3 2 2 2 2 2 2 2 2 2
54 59 66 63 54 50 53 57 53 49 45 40 38 30 25 23 23 23 20 15 9 6 5 4 4 4 3 2 2 2 3 3 3 2 2 2 2 2 2 2 2 2 2

GFSGL_250_rhum_060.txt.gz
RH
69 89 100 100 100 100 100 100 94 87 89 78 80 61 42 33 33 37 45 59 65 98 94 73 97 100 100 100 87 69 62 62 61 73 80 94 99 100 98 100 100 100 100
44 57 66 73 74 73 67 69 75 74 87 92 75 66 53 55 62 94 100 99 100 100 100 100 100 100 86 66 58 61 64 72 75 80 95 100 100 100 96 100 100 100 99
41 44 49 55 57 56 63 74 76 78 70 89 57 55 71 96 90 100 100 100 100 100 100 100 100 76 65 63 63 66 65 69 79 83 91 95 96 97 100 97 96 100 99
33 34 42 47 51 56 62 60 70 79 100 100 100 100 100 100 100 100 100 100 100 100 100 88 74 58 50 50 56 59 64 69 76 82 90 91 90 86 87 100 100 100 97
30 31 35 36 40 48 47 55 66 90 100 100 100 100 100 100 100 100 100 100 96 75 65 54 52 47 45 46 42 48 60 85 84 87 84 83 82 79 80 87 80 87 100
41 37 38 46 47 49 61 73 70 88 100 100 100 100 100 100 96 51 43 51 53 52 50 49 50 50 52 47 45 52 53 69 88 91 97 99 96 90 78 72 74 80 98
56 45 41 46 52 65 65 67 59 56 61 66 56 60 62 67 72 77 71 68 67 63 60 58 58 54 55 60 58 56 55 69 90 92 83 89 98 82 70 68 66 70 96
72 68 64 49 46 42 46 59 62 58 59 52 62 77 83 95 93 87 83 84 85 80 80 85 84 88 81 77 60 56 54 67 88 86 80 94 88 76 70 72 72 78 97
88 95 86 52 56 42 44 40 44 52 62 59 50 50 52 54 62 71 79 82 72 75 70 74 68 66 81 80 72 63 57 77 92 84 78 89 97 86 76 64 87 77 92
88 100 94 66 44 56 51 63 55 54 54 56 55 61 58 60 79 76 76 76 82 83 83 83 95 83 83 68 62 62 68 99 100 91 87 93 88 89 74 68 73 71 79
100 100 92 81 78 67 92 76 59 74 78 79 90 86 87 95 92 95 100 100 100 93 88 94 100 93 87 78 72 75 83 100 97 81 95 97 90 79 77 80 75 78 85
100 100 100 100 100 94 72 68 88 80 82 93 98 100 94 92 97 100 100 100 100 100 96 94 91 91 90 87 85 76 90 99 92 96 100 94 85 80 89 62 69 78 76
70 87 100 100 100 98 96 75 76 84 70 93 97 98 97 92 94 100 100 100 100 100 100 96 100 100 100 100 84 84 97 100 94 100 100 96 92 76 59 70 64 76 68
100 100 95 87 99 100 100 100 100 100 99 100 100 94 86 95 100 100 100 100 100 100 100 100 100 100 100 87 81 94 99 100 100 100 100 99 77 56 50 54 70 69 53
100 100 100 100 100 100 100 100 100 100 100 100 100 99 100 100 100 100 99 100 100 100 100 100 100 100 89 81 88 96 98 97 100 100 100 83 57 47 50 57 62 53 34
100 100 100 100 100 100 100 100 100 100 100 100 100 100 100 100 100 100 100 99 100 100 100 100 100 96 86 79 93 93 92 100 100 100 93 62 41 40 52 56 48 34 19
100 100 100 92 98 93 100 100 100 100 100 100 100 100 100 100 100 100 99 100 100 100 100 99 82 76 76 89 91 100 100 100 100 96 68 42 40 47 49 43 31 16 9
100 100 100 100 100 96 99 97 94 100 97 98 91 94 90 98 97 91 98 98 92 95 87 68 74 86 94 99 100 100 100 100 92 55 38 37 40 41 35 22 12 7 6
100 100 100 99 100 99 96 92 94 91 97 100 98 100 100 100 100 99 86 78 78 72 70 94 100 100 100 100 100 100 100 74 42 33 34 35 30 25 14 8 6 5 4
100 100 100 97 100 100 100 86 76 74 63 58 60 72 76 81 87 88 75 76 74 97 100 100 100 100 100 100 98 75 46 37 30 30 30 25 17 9 7 6 4 4 3
98 100 100 100 100 94 100 96 82 65 58 52 55 66 72 75 69 71 87 97 100 100 97 95 100 89 86 77 41 33 28 27 28 25 17 10 6 5 4 3 3 3 4
100 93 94 97 97 99 88 72 64 57 55 50 54 68 66 68 82 96 96 92 86 81 83 78 78 58 32 30 28 27 26 21 14 9 6 5 4 3 3 3 3 3 3
75 88 93 91 83 76 72 69 63 56 61 57 60 76 86 86 71 66 71 72 60 59 52 44 26 24 24 23 21 18 15 9 6 5 4 3 2 2 3 3 3 3 2
77 84 83 71 65 65 66 62 55 52 55 63 61 61 57 51 51 52 51 46 41 31 20 21 20 20 18 14 10 7 5 4 4 3 2 2 2 3 3 3 2 2 2
74 74 62 54 51 52 45 39 40 42 41 41 45 46 42 35 36 30 24 19 17 18 17 16 12 10 8 6 5 4 3 2 2 2 2 2 2 2 2 2 2 2 2
43 39 36 36 34 32 30 29 29 31 33 35 31 27 27 22 18 16 16 16 14 11 8 6 5 4 4 3 2 2 2 2 2 2 2 2 2 2 2 2 2 2 2

GFSGL_250_rhum_063.txt.gz
RH
42 62 89 97 79 71 59 56 56 63 94 100 92 78 95 98 95 87 71 69 57 35 34 35 48 74 99 100 100 100 100 80 68 54 55 64 67 71 80 77 80 90 90
28 36 36 42 63 86 85 83 90 85 82 82 75 97 100 98 96 58 51 38 50 58 72 100 100 100 100 100 99 85 58 57 54 59 56 52 60 61 63 76 84 87 73
27 28 30 34 40 41 54 67 70 71 86 90 96 91 96 80 58 50 68 82 94 98 100 100 100 100 100 65 60 59 60 63 67 69 70 73 63 58 57 60 98 87 77
38 36 31 30 32 34 39 42 45 46 59 58 64 62 61 74 80 83 97 100 100 100 100 100 97 74 56 68 79 84 83 79 78 82 79 70 67 61 65 80 96 90 93
62 46 50 42 33 32 34 36 43 48 48 49 50 55 62 70 70 85 97 100 95 64 68 82 83 93 99 100 99 94 91 80 70 78 92 92 80 72 69 70 79 96 90
92 69 57 62 47 44 33 32 33 38 39 43 50 49 48 48 50 55 63 73 80 94 95 97 98 89 92 88 85 81 72 75 78 75 84 82 76 69 72 75 90 96 100
84 70 62 79 70 57 57 50 34 33 35 39 47 53 55 55 59 66 64 68 67 70 69 70 69 75 82 85 85 76 81 91 88 87 85 89 82 76 69 80 94 91 97
100 96 66 63 80 72 66 66 59 50 43 42 41 42 51 54 56 60 58 64 70 69 63 66 66 64 73 79 88 89 86 83 88 92 98 100 100 92 80 83 93 89 78
100 100 98 71 100 61 74 99 94 83 74 63 59 60 76 68 62 70 77 87 87 90 93 100 100 100 100 93 97 99 96 95 97 100 100 98 100 91 87 94 100 89 92
56 100 100 96 100 100 100 100 100 100 100 90 74 91 93 83 78 80 84 85 98 97 95 95 98 96 100 100 100 97 100 100 100 98 92 93 89 97 98 100 100 88 94
76 64 63 100 84 85 99 100 100 100 100 100 100 100 89 74 87 100 100 92 86 73 88 100 98 99 98 100 100 100 100 100 100 96 92 97 100 100 100 100 92 94 95
100 100 94 83 100 100 100 93 92 100 100 100 98 83 94 100 100 100 100 100 88 88 98 100 100 100 100 100 100 100 99 100 100 100 100 99 100 96 100 99 90 100 96
83 100 100 100 100 100 100 90 98 95 100 100 100 100 100 100 100 100 100 100 100 100 100 100 100 100 100 100 100 100 100 99 100 100 100 92 91 100 100 96 97 94 100
100 100 100 100 81 76 98 94 100 100 100 100 100 100 100 100 100 100 100 100 99 100 100 100 100 100 100 100 100 100 100 100 100 100 90 79 87 95 96 97 91 100 100
100 100 100 100 100 100 100 100 100 100 100 100 100 100 100 100 100 92 82 86 97 100 95 100 100 100 100 97 99 100 100 100 99 85 74 72 85 88 93 94 100 96 75
100 100 100 100 100 100 100 100 100 100 100 100 100 100 100 100 99 95 84 92 95 89 100 90 86 88 85 89 100 100 100 92 80 68 67 84 87 91 90 90 94 68 45
85 92 100 100 100 99 100 100 100 100 100 100 100 100 96 94 100 100 95 95 93 91 80 84 77 70 67 72 91 93 78 65 59 78 95 87 84 88 88 85 67 39 32
88 89 96 98 99 97 100 100 100 100 100 100 99 98 99 100 99 94 97 100 100 87 87 84 65 61 71 80 72 57 57 74 92 91 86 82 83 86 66 38 29 27 25
89 83 94 99 95 88 86 97 92 100 100 96 93 96 97 98 97 96 98 100 98 98 93 71 60 62 58 54 59 67 83 84 76 84 78 74 54 34 27 24 21 15 10
65 88 88 91 94 91 100 86 68 87 94 86 86 89 99 100 100 96 97 92 97 92 80 62 55 50 50 52 65 73 65 65 59 55 46 29 23 22 18 13 8 7 6
56 83 90 93 98 100 100 86 61 55 65 66 66 69 74 84 89 80 84 87 79 68 58 50 43 41 48 55 51 50 50 43 34 23 22 20 16 9 6 5 5 4 4
79 86 85 92 94 100 100 92 85 70 55 52 58 62 64 68 63 71 74 69 51 44 41 37 34 36 39 39 36 31 26 20 18 18 14 8 6 5 5 4 4 3 3
63 70 73 73 96 100 93 84 58 51 45 39 39 45 48 48 48 46 41 39 39 37 33 28 28 29 27 22 19 18 17 16 12 7 6 4 4 3 3 2 2 2 2
46 52 49 47 58 46 42 40 37 33 32 27 29 36 36 36 36 38 32 31 30 27 25 23 22 18 16 15 15 12 9 6 5 4 3 3 2 2 2 2 2 2 2
30 25 21 21 24 21 17 18 19 20 21 24 24 24 25 26 26 24 25 25 21 18 16 14 14 14 12 9 6 4 4 3 3 2 2 2 2 2 2 2 2 2 2
15 14 15 14 14 15 17 22 23 20 19 22 23 21 20 20 21 19 16 16 14 13 12 11 9 7 5 4 3 3 2 2 2 2 2 2 2 2 2 2 2 2 2

GFSGL_250_rhum_069.txt.gz
RH
24 24 43 82 82 68 66 62 66 84 100 100 100 100 100 100 100 100 100 100 100 100 100 100 86 79 67 72 86 83 69 52 70 100 97 95 82 94 97 100 100 99 94
32 33 27 25 28 39 74 94 98 69 65 73 75 88 100 96 69 62 76 90 84 92 87 78 75 82 78 70 68 70 48 62 88 100 77 94 100 98 100 98 96 75 100
41 35 34 51 29 25 27 30 34 48 63 90 92 84 78 73 76 80 74 68 74 79 76 69 76 67 72 61 52 42 53 70 85 100 100 100 100 100 97 81 98 100 100
59 68 50 51 61 44 31 31 27 28 30 32 36 45 63 83 79 70 63 54 46 47 48 50 49 45 46 55 61 69 72 82 89 96 86 100 100 72 60 94 93 97 97
32 32 62 57 50 66 57 59 45 41 42 38 30 31 31 32 33 33 36 38 41 38 41 42 41 42 46 49 47 58 64 72 74 66 83 87 84 72 85 92 99 99 100
100 63 29 46 55 42 67 100 67 60 38 41 41 33 35 36 45 43 41 45 50 50 54 46 46 46 44 49 64 75 62 75 91 90 93 99 91 88 82 100 100 100 100
99 100 97 63 46 66 45 44 91 100 53 48 76 69 41 42 45 50 62 76 66 57 60 63 64 88 93 82 77 64 72 96 64 87 100 100 100 100 97 77 90 86 72
65 96 100 100 100 92 88 100 59 55 93 100 100 100 97 89 72 100 100 71 60 86 100 100 100 100 100 100 100 100 100 100 100 100 100 100 100 100 100 100 100 100 94
47 46 54 84 100 100 92 89 100 99 80 66 91 100 100 86 89 88 88 82 61 50 55 70 75 78 89 100 100 100 100 100 100 100 100 100 100 100 100 100 100 100 100
53 47 49 43 46 62 72 71 74 99 100 100 100 100 100 100 100 100 90 93 90 87 84 89 100 100 99 90 100 100 100 100 100 100 100 84 100 100 100 100 100 100 100
94 79 70 93 88 74 67 64 55 58 50 57 56 86 100 85 76 100 100 85 97 100 100 100 100 100 93 97 99 98 90 76 97 94 95 100 91 100 100 100 100 100 100
99 100 87 81 95 88 100 100 100 98 96 95 92 99 85 97 86 67 97 100 100 98 98 100 100 94 88 94 100 100 100 99 100 88 94 100 100 100 100 100 100 100 98
100 100 95 84 96 100 100 100 100 100 100 90 96 100 100 100 100 100 100 100 100 100 100 78 87 93 88 99 100 100 100 100 100 100 100 100 100 100 100 100 100 100 100
98 84 95 100 91 87 85 85 73 65 85 86 98 100 100 100 100 100 100 100 100 100 100 100 100 100 100 100 100 100 100 100 100 100 100 100 100 100 100 100 100 100 100
64 73 100 100 100 100 100 100 100 100 100 100 100 100 100 95 98 100 100 100 100 100 100 100 98 94 95 100 100 100 100 100 100 100 100 100 100 100 100 100 96 86 78
57 92 100 100 100 100 100 100 100 100 100 100 100 100 100 100 100 100 100 100 100 96 99 95 100 93 88 90 85 93 100 100 100 100 100 100 100 100 100 90 70 71 70
83 83 97 100 100 100 100 100 80 83 100 100 90 99 99 100 100 100 100 100 100 100 100 100 100 89 78 86 95 93 80 79 78 74 59 52 53 60 61 53 52 36 29
87 78 95 95 72 69 80 81 80 96 99 99 99 98 82 73 76 84 88 91 100 97 86 79 79 72 72 85 79 89 94 98 76 93 100 75 59 46 45 44 26 26 25
69 67 87 100 96 99 80 69 58 63 64 65 75 77 86 82 68 79 77 93 85 88 100 100 92 81 73 67 78 85 96 92 92 80 54 53 45 31 32 27 19 18 17
29 33 35 48 65 75 61 47 42 60 81 77 92 100 100 95 84 90 100 100 84 85 97 100 97 87 90 90 93 95 78 62 55 39 34 24 25 21 14 16 13 12 12
14 16 19 22 25 31 61 54 55 49 70 100 100 100 100 90 100 100 100 85 74 92 98 92 88 84 96 89 58 43 45 36 31 27 24 18 14 13 11 10 9 10 9
17 16 15 15 15 17 24 29 24 32 71 82 99 100 100 100 100 100 95 51 58 79 80 79 64 46 54 39 30 26 27 21 18 16 13 13 10 9 9 9 8 8 6
24 20 20 22 22 21 19 20 20 18 27 42 35 28 27 34 37 30 39 40 44 48 53 48 45 33 28 25 20 15 14 12 11 10 9 8 8 8 7 5 4 4 3
22 24 26 28 30 34 36 38 39 34 33 30 29 25 25 26 32 42 49 46 52 46 33 26 31 26 17 13 11 12 10 9 8 8 8 8 6 4 4 3 3 2 2
23 21 23 25 26 30 33 32 29 28 27 27 26 26 27 26 23 25 26 26 22 21 18 17 15 12 11 9 8 8 8 8 8 7 5 4 4 3 2 2 2 2 2
17 17 16 16 17 17 17 17 17 18 18 19 18 18 17 18 18 20 19 17 16 14 11 10 8 8 8 8 8 8 6 5 4 4 3 3 2 2 2 2 2 2 1

GFSGL_250_rhum_072.txt.gz
RH
31 28 26 28 40 51 62 65 67 68 67 67 96 80 84 87 97 94 74 100 87 96 100 100 100 100 100 96 92 89 92 89 85 63 67 66 58 52 55 54 60 64 76
34 31 29 33 33 27 28 39 53 76 79 66 66 70 99 100 100 100 100 100 100 100 100 99 85 72 60 74 88 93 87 72 60 43 49 55 50 51 50 63 82 100 91
34 38 46 32 37 49 36 29 29 28 29 40 65 78 82 75 71 75 81 85 88 83 60 60 83 100 98 78 64 52 51 41 44 39 42 46 39 44 50 64 76 81 93
94 53 39 38 37 44 45 62 65 50 42 41 41 40 31 31 40 48 52 63 72 78 82 61 47 42 43 45 40 42 40 37 40 44 54 68 80 88 92 100 100 100 100
100 100 93 61 40 31 35 41 36 54 68 53 76 57 44 48 46 35 33 36 41 39 43 50 44 43 38 41 42 50 63 89 88 100 100 100 99 100 100 100 100 100 100
33 34 38 47 100 78 47 36 56 64 90 100 100 76 35 35 39 60 55 35 34 34 51 66 86 84 73 70 100 100 100 100 100 100 100 100 100 95 100 100 100 100 87
37 33 31 28 32 83 100 83 56 63 73 60 48 46 82 100 100 100 100 100 78 71 84 90 92 60 66 100 84 81 100 88 80 70 63 74 89 93 96 100 95 100 100
36 30 36 34 27 31 54 95 100 100 98 95 99 98 73 60 78 100 100 100 100 100 91 94 83 87 89 73 71 56 72 81 96 93 75 78 85 98 100 100 100 100 92
61 59 46 35 35 29 34 41 47 64 79 74 66 84 99 100 100 98 98 100 100 100 100 100 100 94 100 100 100 100 100 100 99 92 90 91 100 100 99 91 99 100 100
51 50 46 37 30 41 35 30 36 36 37 38 38 41 49 52 54 77 77 91 93 86 91 83 71 68 82 99 100 100 100 99 88 70 95 100 100 84 84 97 99 100 100
78 72 98 88 77 58 50 46 44 54 66 65 58 51 54 54 57 63 64 58 60 57 60 60 61 55 46 60 94 92 72 66 79 100 99 85 94 100 100 100 96 99 96
100 100 100 92 78 97 93 93 98 83 97 93 87 70 86 90 84 86 79 73 66 61 57 58 54 51 56 61 62 76 89 92 100 90 93 100 100 100 100 99 90 93 100
100 100 100 100 100 100 100 100 100 100 100 100 76 66 74 100 100 100 77 75 72 94 100 100 99 100 100 100 99 100 100 100 100 100 100 100 94 93 73 72 99 100 100
100 100 100 99 98 100 100 100 100 100 100 95 82 95 86 93 93 100 94 100 99 100 100 100 100 100 100 100 100 100 100 99 78 76 68 62 81 100 100 100 100 100 100
100 100 100 100 100 100 100 100 100 100 92 78 80 99 100 100 100 100 100 98 100 100 100 100 100 100 100 100 98 95 85 80 84 99 100 100 100 98 99 83 71 82 89
64 76 90 85 85 84 90 96 84 76 96 96 88 99 100 100 100 100 100 100 100 100 100 100 100 100 100 93 86 98 100 100 100 100 100 98 82 84 87 80 82 75 74
60 74 87 93 90 85 82 88 81 77 100 99 93 100 92 100 100 100 100 100 98 100 100 90 95 90 80 74 78 99 100 98 93 81 75 73 68 91 93 100 82 77 77
78 70 63 76 79 76 72 84 94 91 88 97 98 99 99 88 86 86 89 84 77 67 66 72 62 66 92 100 100 95 70 71 65 62 71 99 95 97 88 80 80 70 80
61 65 65 55 52 56 60 73 98 100 100 100 100 99 100 96 96 89 77 80 76 69 55 48 67 78 89 85 81 87 77 80 87 100 100 100 94 80 80 75 48 45 39
39 36 33 30 30 30 32 35 44 58 64 66 75 77 82 88 92 80 60 50 54 57 70 72 75 74 80 97 100 97 87 90 98 100 86 90 82 96 50 42 32 23 20
21 17 16 14 14 14 14 16 18 20 22 24 30 32 40 43 48 58 73 70 72 74 97 99 74 68 69 75 92 80 87 80 61 62 56 56 30 37 27 21 13 15 10
13 11 11 11 10 11 12 13 16 17 16 18 19 20 27 38 48 48 44 74 96 91 74 69 74 76 64 62 60 56 58 52 39 28 20 20 19 15 12 9 9 9 9
13 10 10 12 13 15 17 18 21 22 19 19 20 23 24 27 27 25 42 54 58 58 59 60 65 43 47 59 53 39 27 32 22 16 14 10 10 10 7 8 9 7 5
13 12 13 14 16 20 22 23 26 27 29 28 28 27 26 24 25 25 32 42 47 54 42 28 20 22 24 21 19 21 19 13 11 10 9 8 7 8 8 7 5 4 3
10 11 12 13 14 15 16 16 17 19 22 24 24 21 21 21 21 25 25 22 22 20 19 18 17 18 17 14 12 11 9 8 8 8 9 9 7 5 4 4 3 3 2
9 10 10 11 12 12 11 11 12 12 13 13 14 16 18 20 20 20 19 18 17 16 16 16 15 13 11 10 8 8 9 10 9 6 5 4 4 4 3 2 2 2 2